Wetterdaten: Dienstag, 02.12.2014
Datum Zeit Temp. Aussen +5cm Feuchte Auss Luftdruck Regen Sonnenschein Regendauer Solar Windben
02.12.2014 00:00 1,9 C 1,1 C 89 % 1011,9 hPa 0,0 l/m 0 min 0 min 0 W/m 16,7 km/h (3 Bft)
02.12.2014 00:02 1,9 C 1,1 C 89 % 1011,9 hPa 0,0 l/m 0 min 0 min 0 W/m 16,7 km/h (3 Bft)
02.12.2014 00:05 1,9 C 1,1 C 89 % 1011,9 hPa 0,0 l/m 0 min 0 min 0 W/m 18,8 km/h (3 Bft)
02.12.2014 00:06 1,9 C 1,1 C 89 % 1012,0 hPa 0,0 l/m 0 min 0 min 0 W/m 18,8 km/h (3 Bft)
02.12.2014 00:08 1,9 C 1,1 C 89 % 1011,9 hPa 0,0 l/m 0 min 0 min 0 W/m 16,7 km/h (3 Bft)
02.12.2014 00:10 1,9 C 1,1 C 89 % 1012,0 hPa 0,0 l/m 0 min 0 min 0 W/m 23,0 km/h (4 Bft)
02.12.2014 00:12 1,9 C 1,1 C 89 % 1012,0 hPa 0,0 l/m 0 min 0 min 0 W/m 20,9 km/h (4 Bft)
02.12.2014 00:14 1,8 C 1,1 C 89 % 1012,0 hPa 0,0 l/m 0 min 0 min 0 W/m 14,6 km/h (3 Bft)
02.12.2014 00:16 1,8 C 1,1 C 89 % 1011,9 hPa 0,0 l/m 0 min 0 min 0 W/m 18,8 km/h (3 Bft)
02.12.2014 00:18 1,8 C 1,1 C 89 % 1012,0 hPa 0,0 l/m 0 min 0 min 0 W/m 16,7 km/h (3 Bft)
02.12.2014 00:20 1,8 C 1,1 C 89 % 1012,0 hPa 0,0 l/m 0 min 0 min 0 W/m 16,7 km/h (3 Bft)
02.12.2014 00:22 1,8 C 1,1 C 89 % 1011,9 hPa 0,0 l/m 0 min 0 min 0 W/m 23,0 km/h (4 Bft)
02.12.2014 00:24 1,8 C 1,1 C 89 % 1011,9 hPa 0,0 l/m 0 min 0 min 0 W/m 23,0 km/h (4 Bft)
02.12.2014 00:26 1,7 C 1,1 C 89 % 1011,9 hPa 0,0 l/m 0 min 0 min 0 W/m 18,8 km/h (3 Bft)
02.12.2014 00:28 1,7 C 1,1 C 89 % 1011,9 hPa 0,0 l/m 0 min 0 min 0 W/m 18,8 km/h (3 Bft)
02.12.2014 00:30 1,7 C 1,1 C 89 % 1011,9 hPa 0,0 l/m 0 min 0 min 0 W/m 16,7 km/h (3 Bft)
02.12.2014 00:32 1,7 C 1,1 C 90 % 1011,9 hPa 0,0 l/m 0 min 0 min 0 W/m 10,5 km/h (2 Bft)
02.12.2014 00:34 1,7 C 1,1 C 89 % 1011,9 hPa 0,0 l/m 0 min 0 min 0 W/m 16,7 km/h (3 Bft)
02.12.2014 00:36 1,7 C 1,1 C 89 % 1011,9 hPa 0,0 l/m 0 min 0 min 0 W/m 20,9 km/h (4 Bft)
02.12.2014 00:38 1,7 C 1,1 C 90 % 1011,9 hPa 0,0 l/m 0 min 0 min 0 W/m 27,2 km/h (4 Bft)
02.12.2014 00:40 1,7 C 1,1 C 90 % 1011,9 hPa 0,0 l/m 0 min 0 min 0 W/m 10,5 km/h (2 Bft)
02.12.2014 00:42 1,7 C 1,1 C 90 % 1011,9 hPa 0,0 l/m 0 min 0 min 0 W/m 16,7 km/h (3 Bft)
02.12.2014 00:44 1,7 C 1,1 C 90 % 1012,0 hPa 0,0 l/m 0 min 0 min 0 W/m 20,9 km/h (4 Bft)
02.12.2014 00:46 1,7 C 1,1 C 90 % 1011,9 hPa 0,0 l/m 0 min 0 min 0 W/m 20,9 km/h (4 Bft)
02.12.2014 00:48 1,7 C 1,1 C 90 % 1011,9 hPa 0,0 l/m 0 min 0 min 0 W/m 18,8 km/h (3 Bft)
02.12.2014 00:50 1,7 C 1,1 C 90 % 1012,0 hPa 0,0 l/m 0 min 0 min 0 W/m 18,8 km/h (3 Bft)
02.12.2014 00:52 1,7 C 0,6 C 90 % 1012,0 hPa 0,0 l/m 0 min 0 min 0 W/m 18,8 km/h (3 Bft)
02.12.2014 00:54 1,6 C 1,1 C 90 % 1012,0 hPa 0,0 l/m 0 min 0 min 0 W/m 23,0 km/h (4 Bft)
02.12.2014 00:56 1,6 C 0,6 C 90 % 1012,0 hPa 0,0 l/m 0 min 0 min 0 W/m 18,8 km/h (3 Bft)
02.12.2014 00:58 1,6 C 0,6 C 90 % 1012,0 hPa 0,0 l/m 0 min 0 min 0 W/m 20,9 km/h (4 Bft)
02.12.2014 01:00 1,6 C 1,1 C 90 % 1012,0 hPa 0,0 l/m 0 min 0 min 0 W/m 18,8 km/h (3 Bft)
02.12.2014 01:02 1,6 C 1,1 C 90 % 1012,0 hPa 0,0 l/m 0 min 0 min 0 W/m 18,8 km/h (3 Bft)
02.12.2014 01:04 1,6 C 1,1 C 90 % 1012,0 hPa 0,0 l/m 0 min 0 min 0 W/m 18,8 km/h (3 Bft)
02.12.2014 01:06 1,6 C 1,1 C 90 % 1012,0 hPa 0,0 l/m 0 min 0 min 0 W/m 14,6 km/h (3 Bft)
02.12.2014 01:08 1,6 C 1,1 C 90 % 1012,0 hPa 0,0 l/m 0 min 0 min 0 W/m 12,6 km/h (3 Bft)
02.12.2014 01:10 1,6 C 1,1 C 90 % 1012,0 hPa 0,0 l/m 0 min 0 min 0 W/m 10,5 km/h (2 Bft)
02.12.2014 01:12 1,6 C 1,1 C 90 % 1011,9 hPa 0,0 l/m 0 min 0 min 0 W/m 10,5 km/h (2 Bft)
02.12.2014 01:14 1,6 C 1,1 C 90 % 1011,9 hPa 0,0 l/m 0 min 0 min 0 W/m 10,5 km/h (2 Bft)
02.12.2014 01:16 1,6 C 1,1 C 90 % 1011,9 hPa 0,0 l/m 0 min 0 min 0 W/m 18,8 km/h (3 Bft)
02.12.2014 01:18 1,6 C 1,1 C 90 % 1012,0 hPa 0,0 l/m 0 min 0 min 0 W/m 14,6 km/h (3 Bft)
02.12.2014 01:20 1,6 C 1,1 C 90 % 1011,9 hPa 0,0 l/m 0 min 0 min 0 W/m 12,6 km/h (3 Bft)
02.12.2014 01:22 1,6 C 1,1 C 90 % 1011,9 hPa 0,0 l/m 0 min 0 min 0 W/m 10,5 km/h (2 Bft)
02.12.2014 01:24 1,6 C 1,1 C 90 % 1011,9 hPa 0,0 l/m 0 min 0 min 0 W/m 14,6 km/h (3 Bft)
02.12.2014 01:26 1,6 C 1,1 C 90 % 1011,9 hPa 0,0 l/m 0 min 0 min 0 W/m 14,6 km/h (3 Bft)
02.12.2014 01:28 1,6 C 1,1 C 90 % 1011,9 hPa 0,0 l/m 0 min 0 min 0 W/m 12,6 km/h (3 Bft)
02.12.2014 01:30 1,6 C 1,1 C 90 % 1011,9 hPa 0,0 l/m 0 min 0 min 0 W/m 12,6 km/h (3 Bft)
02.12.2014 01:32 1,6 C 1,1 C 90 % 1011,9 hPa 0,0 l/m 0 min 0 min 0 W/m 14,6 km/h (3 Bft)
02.12.2014 01:34 1,6 C 0,6 C 90 % 1011,9 hPa 0,0 l/m 0 min 0 min 0 W/m 14,6 km/h (3 Bft)
02.12.2014 01:36 1,6 C 0,6 C 90 % 1011,9 hPa 0,0 l/m 0 min 0 min 0 W/m 18,8 km/h (3 Bft)
02.12.2014 01:38 1,6 C 0,6 C 90 % 1011,9 hPa 0,0 l/m 0 min 0 min 0 W/m 14,6 km/h (3 Bft)
02.12.2014 01:40 1,6 C 0,6 C 91 % 1011,9 hPa 0,0 l/m 0 min 0 min 0 W/m 12,6 km/h (3 Bft)
02.12.2014 01:42 1,6 C 0,6 C 90 % 1011,9 hPa 0,0 l/m 0 min 0 min 0 W/m 18,8 km/h (3 Bft)
02.12.2014 01:44 1,6 C 0,6 C 90 % 1011,9 hPa 0,0 l/m 0 min 0 min 0 W/m 18,8 km/h (3 Bft)
02.12.2014 01:46 1,6 C 0,6 C 91 % 1011,8 hPa 0,0 l/m 0 min 0 min 0 W/m 18,8 km/h (3 Bft)
02.12.2014 01:48 1,6 C 0,6 C 91 % 1011,8 hPa 0,0 l/m 0 min 0 min 0 W/m 14,6 km/h (3 Bft)
02.12.2014 01:50 1,6 C 0,6 C 91 % 1011,8 hPa 0,0 l/m 0 min 0 min 0 W/m 16,7 km/h (3 Bft)
02.12.2014 01:52 1,6 C 0,6 C 91 % 1011,9 hPa 0,0 l/m 0 min 0 min 0 W/m 14,6 km/h (3 Bft)
02.12.2014 01:54 1,6 C 0,6 C 91 % 1011,9 hPa 0,0 l/m 0 min 0 min 0 W/m 10,5 km/h (2 Bft)
02.12.2014 01:56 1,6 C 0,6 C 91 % 1011,8 hPa 0,0 l/m 0 min 0 min 0 W/m 10,5 km/h (2 Bft)
02.12.2014 01:58 1,5 C 0,6 C 91 % 1011,8 hPa 0,0 l/m 0 min 0 min 0 W/m 16,7 km/h (3 Bft)
02.12.2014 02:00 1,6 C 0,6 C 91 % 1011,8 hPa 0,0 l/m 0 min 0 min 0 W/m 10,5 km/h (2 Bft)
02.12.2014 02:02 1,5 C 0,6 C 91 % 1011,8 hPa 0,0 l/m 0 min 0 min 0 W/m 16,7 km/h (3 Bft)
02.12.2014 02:04 1,5 C 0,6 C 91 % 1011,8 hPa 0,0 l/m 0 min 0 min 0 W/m 16,7 km/h (3 Bft)
02.12.2014 02:06 1,5 C 0,6 C 91 % 1011,8 hPa 0,0 l/m 0 min 0 min 0 W/m 16,7 km/h (3 Bft)
02.12.2014 02:08 1,5 C 0,6 C 91 % 1011,8 hPa 0,0 l/m 0 min 0 min 0 W/m 12,6 km/h (3 Bft)
02.12.2014 02:10 1,5 C 0,6 C 91 % 1011,8 hPa 0,0 l/m 0 min 0 min 0 W/m 10,5 km/h (2 Bft)
02.12.2014 02:12 1,5 C 0,6 C 91 % 1011,8 hPa 0,0 l/m 0 min 0 min 0 W/m 14,6 km/h (3 Bft)
02.12.2014 02:14 1,4 C 0,6 C 91 % 1011,8 hPa 0,0 l/m 0 min 0 min 0 W/m 14,6 km/h (3 Bft)
02.12.2014 02:16 1,4 C 0,6 C 91 % 1011,8 hPa 0,0 l/m 0 min 0 min 0 W/m 14,6 km/h (3 Bft)
02.12.2014 02:18 1,4 C 0,6 C 91 % 1011,8 hPa 0,0 l/m 0 min 0 min 0 W/m 12,6 km/h (3 Bft)
02.12.2014 02:20 1,4 C 0,6 C 91 % 1011,8 hPa 0,0 l/m 0 min 0 min 0 W/m 14,6 km/h (3 Bft)
02.12.2014 02:22 1,4 C 0,6 C 91 % 1011,8 hPa 0,0 l/m 0 min 0 min 0 W/m 14,6 km/h (3 Bft)
02.12.2014 02:24 1,4 C 0,6 C 91 % 1011,8 hPa 0,0 l/m 0 min 0 min 0 W/m 20,9 km/h (4 Bft)
02.12.2014 02:26 1,4 C 0,6 C 91 % 1011,8 hPa 0,0 l/m 0 min 0 min 0 W/m 14,6 km/h (3 Bft)
02.12.2014 02:28 1,4 C 0,6 C 91 % 1011,8 hPa 0,0 l/m 0 min 0 min 0 W/m 14,6 km/h (3 Bft)
02.12.2014 02:30 1,4 C 0,6 C 91 % 1011,8 hPa 0,0 l/m 0 min 0 min 0 W/m 8,4 km/h (2 Bft)
02.12.2014 02:32 1,4 C 0,6 C 91 % 1011,8 hPa 0,0 l/m 0 min 0 min 0 W/m 16,7 km/h (3 Bft)
02.12.2014 02:34 1,4 C 0,6 C 91 % 1011,8 hPa 0,0 l/m 0 min 0 min 0 W/m 8,4 km/h (2 Bft)
02.12.2014 02:36 1,4 C 0,6 C 91 % 1011,8 hPa 0,0 l/m 0 min 0 min 0 W/m 18,8 km/h (3 Bft)
02.12.2014 02:38 1,4 C 0,6 C 91 % 1011,8 hPa 0,0 l/m 0 min 0 min 0 W/m 14,6 km/h (3 Bft)
02.12.2014 02:40 1,4 C 0,6 C 91 % 1011,8 hPa 0,0 l/m 0 min 0 min 0 W/m 18,8 km/h (3 Bft)
02.12.2014 02:42 1,4 C 0,6 C 91 % 1011,8 hPa 0,0 l/m 0 min 0 min 0 W/m 10,5 km/h (2 Bft)
02.12.2014 02:44 1,4 C 0,6 C 91 % 1011,9 hPa 0,0 l/m 0 min 0 min 0 W/m 14,6 km/h (3 Bft)
02.12.2014 02:46 1,4 C 0,6 C 91 % 1011,9 hPa 0,0 l/m 0 min 0 min 0 W/m 10,5 km/h (2 Bft)
02.12.2014 02:48 1,4 C 0,6 C 91 % 1011,9 hPa 0,0 l/m 0 min 0 min 0 W/m 16,7 km/h (3 Bft)
02.12.2014 02:50 1,4 C 0,6 C 91 % 1011,9 hPa 0,0 l/m 0 min 0 min 0 W/m 12,6 km/h (3 Bft)
02.12.2014 02:52 1,4 C 0,6 C 91 % 1011,9 hPa 0,0 l/m 0 min 0 min 0 W/m 14,6 km/h (3 Bft)
02.12.2014 02:54 1,4 C 0,6 C 91 % 1011,9 hPa 0,0 l/m 0 min 0 min 0 W/m 14,6 km/h (3 Bft)
02.12.2014 02:56 1,4 C 0,6 C 91 % 1011,9 hPa 0,0 l/m 0 min 0 min 0 W/m 12,6 km/h (3 Bft)
02.12.2014 02:58 1,4 C 0,6 C 91 % 1011,9 hPa 0,0 l/m 0 min 0 min 0 W/m 16,7 km/h (3 Bft)
02.12.2014 03:00 1,4 C 0,6 C 91 % 1011,9 hPa 0,0 l/m 0 min 0 min 0 W/m 8,4 km/h (2 Bft)
02.12.2014 03:02 1,3 C 0,6 C 91 % 1012,0 hPa 0,0 l/m 0 min 0 min 0 W/m 10,5 km/h (2 Bft)
02.12.2014 03:04 1,4 C 0,6 C 91 % 1012,0 hPa 0,0 l/m 0 min 0 min 0 W/m 10,5 km/h (2 Bft)
02.12.2014 03:06 1,4 C 0,6 C 91 % 1012,0 hPa 0,0 l/m 0 min 0 min 0 W/m 10,5 km/h (2 Bft)
02.12.2014 03:08 1,3 C 0,6 C 91 % 1012,0 hPa 0,0 l/m 0 min 0 min 0 W/m 8,4 km/h (2 Bft)
02.12.2014 03:10 1,3 C 0,6 C 91 % 1012,0 hPa 0,0 l/m 0 min 0 min 0 W/m 8,4 km/h (2 Bft)
02.12.2014 03:12 1,3 C 0,6 C 91 % 1012,1 hPa 0,0 l/m 0 min 0 min 0 W/m 10,5 km/h (2 Bft)
02.12.2014 03:14 1,3 C 0,6 C 91 % 1012,0 hPa 0,0 l/m 0 min 0 min 0 W/m 16,7 km/h (3 Bft)
02.12.2014 03:16 1,3 C 0,6 C 92 % 1011,9 hPa 0,0 l/m 0 min 0 min 0 W/m 10,5 km/h (2 Bft)
02.12.2014 03:18 1,3 C 0,6 C 92 % 1011,9 hPa 0,0 l/m 0 min 0 min 0 W/m 14,6 km/h (3 Bft)
02.12.2014 03:20 1,4 C 1,1 C 92 % 1012,0 hPa 0,0 l/m 0 min 0 min 0 W/m 10,5 km/h (2 Bft)
02.12.2014 03:22 1,3 C 1,1 C 92 % 1012,0 hPa 0,0 l/m 0 min 0 min 0 W/m 8,4 km/h (2 Bft)
02.12.2014 03:24 1,3 C 0,6 C 92 % 1012,1 hPa 0,0 l/m 0 min 0 min 0 W/m 12,6 km/h (3 Bft)
02.12.2014 03:26 1,3 C 0,6 C 91 % 1012,0 hPa 0,0 l/m 0 min 0 min 0 W/m 14,6 km/h (3 Bft)
02.12.2014 03:28 1,3 C 1,1 C 91 % 1012,0 hPa 0,0 l/m 0 min 0 min 0 W/m 12,6 km/h (3 Bft)
02.12.2014 03:30 1,3 C 0,6 C 92 % 1012,0 hPa 0,0 l/m 0 min 0 min 0 W/m 10,5 km/h (2 Bft)
02.12.2014 03:32 1,3 C 1,1 C 91 % 1012,0 hPa 0,0 l/m 0 min 0 min 0 W/m 12,6 km/h (3 Bft)
02.12.2014 03:34 1,3 C 1,1 C 91 % 1012,0 hPa 0,0 l/m 0 min 0 min 0 W/m 14,6 km/h (3 Bft)
02.12.2014 03:36 1,3 C 1,1 C 91 % 1012,0 hPa 0,0 l/m 0 min 0 min 0 W/m 10,5 km/h (2 Bft)
02.12.2014 03:38 1,3 C 1,1 C 91 % 1012,1 hPa 0,0 l/m 0 min 0 min 0 W/m 8,4 km/h (2 Bft)
02.12.2014 03:40 1,3 C 1,1 C 91 % 1012,1 hPa 0,0 l/m 0 min 0 min 0 W/m 10,5 km/h (2 Bft)
02.12.2014 03:42 1,4 C 1,1 C 91 % 1012,2 hPa 0,0 l/m 0 min 0 min 0 W/m 16,7 km/h (3 Bft)
02.12.2014 03:44 1,4 C 1,1 C 91 % 1012,2 hPa 0,0 l/m 0 min 0 min 0 W/m 12,6 km/h (3 Bft)
02.12.2014 03:46 1,4 C 1,1 C 91 % 1012,2 hPa 0,0 l/m 0 min 0 min 0 W/m 14,6 km/h (3 Bft)
02.12.2014 03:48 1,4 C 1,1 C 91 % 1012,2 hPa 0,0 l/m 0 min 0 min 0 W/m 10,5 km/h (2 Bft)
02.12.2014 03:50 1,4 C 1,1 C 91 % 1012,1 hPa 0,0 l/m 0 min 0 min 0 W/m 10,5 km/h (2 Bft)
02.12.2014 03:52 1,4 C 1,1 C 91 % 1012,2 hPa 0,0 l/m 0 min 0 min 0 W/m 16,7 km/h (3 Bft)
02.12.2014 03:54 1,4 C 1,1 C 91 % 1012,2 hPa 0,0 l/m 0 min 0 min 0 W/m 12,6 km/h (3 Bft)
02.12.2014 03:56 1,4 C 1,1 C 91 % 1012,1 hPa 0,0 l/m 0 min 0 min 0 W/m 16,7 km/h (3 Bft)
02.12.2014 03:58 1,4 C 1,1 C 91 % 1012,1 hPa 0,0 l/m 0 min 0 min 0 W/m 20,9 km/h (4 Bft)
02.12.2014 04:00 1,4 C 1,1 C 91 % 1012,1 hPa 0,0 l/m 0 min 0 min 0 W/m 16,7 km/h (3 Bft)
02.12.2014 04:02 1,4 C 1,1 C 91 % 1012,1 hPa 0,0 l/m 0 min 0 min 0 W/m 12,6 km/h (3 Bft)
02.12.2014 04:04 1,4 C 1,1 C 91 % 1012,0 hPa 0,0 l/m 0 min 0 min 0 W/m 18,8 km/h (3 Bft)
02.12.2014 04:06 1,4 C 1,1 C 91 % 1012,1 hPa 0,0 l/m 0 min 0 min 0 W/m 10,5 km/h (2 Bft)
02.12.2014 04:08 1,4 C 1,1 C 91 % 1012,0 hPa 0,0 l/m 0 min 0 min 0 W/m 12,6 km/h (3 Bft)
02.12.2014 04:10 1,4 C 0,6 C 91 % 1012,0 hPa 0,0 l/m 0 min 0 min 0 W/m 14,6 km/h (3 Bft)
02.12.2014 04:12 1,4 C 1,1 C 91 % 1011,9 hPa 0,0 l/m 0 min 0 min 0 W/m 14,6 km/h (3 Bft)
02.12.2014 04:14 1,4 C 0,6 C 91 % 1012,0 hPa 0,0 l/m 0 min 0 min 0 W/m 16,7 km/h (3 Bft)
02.12.2014 04:16 1,4 C 0,6 C 91 % 1012,0 hPa 0,0 l/m 0 min 0 min 0 W/m 16,7 km/h (3 Bft)
02.12.2014 04:18 1,4 C 0,6 C 91 % 1012,0 hPa 0,0 l/m 0 min 0 min 0 W/m 18,8 km/h (3 Bft)
02.12.2014 04:20 1,4 C 0,6 C 91 % 1012,0 hPa 0,0 l/m 0 min 0 min 0 W/m 16,7 km/h (3 Bft)
02.12.2014 04:22 1,4 C 0,6 C 91 % 1012,0 hPa 0,0 l/m 0 min 0 min 0 W/m 12,6 km/h (3 Bft)
02.12.2014 04:24 1,4 C 0,6 C 91 % 1011,9 hPa 0,0 l/m 0 min 0 min 0 W/m 18,8 km/h (3 Bft)
02.12.2014 04:26 1,4 C 1,1 C 91 % 1011,9 hPa 0,0 l/m 0 min 0 min 0 W/m 18,8 km/h (3 Bft)
02.12.2014 04:28 1,4 C 0,6 C 91 % 1011,9 hPa 0,0 l/m 0 min 0 min 0 W/m 10,5 km/h (2 Bft)
02.12.2014 04:30 1,4 C 0,6 C 91 % 1011,9 hPa 0,0 l/m 0 min 0 min 0 W/m 8,4 km/h (2 Bft)
02.12.2014 04:32 1,4 C 0,6 C 91 % 1011,9 hPa 0,0 l/m 0 min 0 min 0 W/m 16,7 km/h (3 Bft)
02.12.2014 04:34 1,4 C 0,6 C 91 % 1011,9 hPa 0,0 l/m 0 min 0 min 0 W/m 14,6 km/h (3 Bft)
02.12.2014 04:36 1,4 C 1,1 C 91 % 1011,9 hPa 0,0 l/m 0 min 0 min 0 W/m 10,5 km/h (2 Bft)
02.12.2014 04:38 1,4 C 1,1 C 91 % 1012,0 hPa 0,0 l/m 0 min 0 min 0 W/m 12,6 km/h (3 Bft)
02.12.2014 04:40 1,4 C 1,1 C 91 % 1012,0 hPa 0,0 l/m 0 min 0 min 0 W/m 14,6 km/h (3 Bft)
02.12.2014 04:42 1,4 C 1,1 C 91 % 1012,0 hPa 0,0 l/m 0 min 0 min 0 W/m 6,3 km/h (2 Bft)
02.12.2014 04:44 1,4 C 1,1 C 91 % 1012,1 hPa 0,0 l/m 0 min 0 min 0 W/m 8,4 km/h (2 Bft)
02.12.2014 04:46 1,4 C 1,1 C 91 % 1012,0 hPa 0,0 l/m 0 min 0 min 0 W/m 6,3 km/h (2 Bft)
02.12.2014 04:48 1,4 C 1,1 C 91 % 1012,1 hPa 0,0 l/m 0 min 0 min 0 W/m 6,3 km/h (2 Bft)
02.12.2014 04:50 1,4 C 1,1 C 91 % 1012,0 hPa 0,0 l/m 0 min 0 min 0 W/m 10,5 km/h (2 Bft)
02.12.2014 04:52 1,4 C 1,1 C 91 % 1012,1 hPa 0,0 l/m 0 min 0 min 0 W/m 8,4 km/h (2 Bft)
02.12.2014 04:54 1,4 C 1,1 C 91 % 1012,1 hPa 0,0 l/m 0 min 0 min 0 W/m 12,6 km/h (3 Bft)
02.12.2014 04:56 1,4 C 1,1 C 91 % 1012,2 hPa 0,0 l/m 0 min 0 min 0 W/m 14,6 km/h (3 Bft)
02.12.2014 04:58 1,4 C 1,1 C 91 % 1012,1 hPa 0,0 l/m 0 min 0 min 0 W/m 6,3 km/h (2 Bft)
02.12.2014 05:00 1,4 C 1,1 C 91 % 1012,2 hPa 0,0 l/m 0 min 0 min 0 W/m 16,7 km/h (3 Bft)
02.12.2014 05:02 1,5 C 1,1 C 91 % 1012,1 hPa 0,0 l/m 0 min 0 min 0 W/m 14,6 km/h (3 Bft)
02.12.2014 05:04 1,5 C 1,1 C 90 % 1012,1 hPa 0,0 l/m 0 min 0 min 0 W/m 10,5 km/h (2 Bft)
02.12.2014 05:06 1,5 C 1,1 C 90 % 1012,1 hPa 0,0 l/m 0 min 0 min 0 W/m 12,6 km/h (3 Bft)
02.12.2014 05:08 1,5 C 1,1 C 90 % 1012,2 hPa 0,0 l/m 0 min 0 min 0 W/m 12,6 km/h (3 Bft)
02.12.2014 05:10 1,5 C 1,1 C 90 % 1012,2 hPa 0,0 l/m 0 min 0 min 0 W/m 10,5 km/h (2 Bft)
02.12.2014 05:12 1,5 C 1,1 C 90 % 1012,2 hPa 0,0 l/m 0 min 0 min 0 W/m 12,6 km/h (3 Bft)
02.12.2014 05:14 1,5 C 1,1 C 90 % 1012,2 hPa 0,0 l/m 0 min 0 min 0 W/m 10,5 km/h (2 Bft)
02.12.2014 05:16 1,5 C 1,1 C 90 % 1012,2 hPa 0,0 l/m 0 min 0 min 0 W/m 10,5 km/h (2 Bft)
02.12.2014 05:18 1,5 C 1,1 C 90 % 1012,3 hPa 0,0 l/m 0 min 0 min 0 W/m 8,4 km/h (2 Bft)
02.12.2014 05:20 1,6 C 1,1 C 90 % 1012,3 hPa 0,0 l/m 0 min 0 min 0 W/m 10,5 km/h (2 Bft)
02.12.2014 05:22 1,6 C 1,1 C 90 % 1012,2 hPa 0,0 l/m 0 min 0 min 0 W/m 16,7 km/h (3 Bft)
02.12.2014 05:24 1,6 C 1,1 C 90 % 1012,2 hPa 0,0 l/m 0 min 0 min 0 W/m 14,6 km/h (3 Bft)
02.12.2014 05:26 1,6 C 1,1 C 90 % 1012,2 hPa 0,0 l/m 0 min 0 min 0 W/m 14,6 km/h (3 Bft)
02.12.2014 05:28 1,6 C 1,1 C 90 % 1012,1 hPa 0,0 l/m 0 min 0 min 0 W/m 14,6 km/h (3 Bft)
02.12.2014 05:30 1,6 C 1,1 C 90 % 1012,2 hPa 0,0 l/m 0 min 0 min 0 W/m 10,5 km/h (2 Bft)
02.12.2014 05:32 1,6 C 1,1 C 90 % 1012,2 hPa 0,0 l/m 0 min 0 min 0 W/m 10,5 km/h (2 Bft)
02.12.2014 05:34 1,6 C 1,1 C 90 % 1012,1 hPa 0,0 l/m 0 min 0 min 0 W/m 10,5 km/h (2 Bft)
02.12.2014 05:36 1,6 C 1,1 C 90 % 1012,2 hPa 0,0 l/m 0 min 0 min 0 W/m 12,6 km/h (3 Bft)
02.12.2014 05:38 1,6 C 1,1 C 90 % 1012,1 hPa 0,0 l/m 0 min 0 min 0 W/m 14,6 km/h (3 Bft)
02.12.2014 05:40 1,6 C 1,1 C 90 % 1012,1 hPa 0,0 l/m 0 min 0 min 0 W/m 14,6 km/h (3 Bft)
02.12.2014 05:42 1,6 C 1,1 C 90 % 1012,1 hPa 0,0 l/m 0 min 0 min 0 W/m 14,6 km/h (3 Bft)
02.12.2014 05:44 1,6 C 1,1 C 90 % 1012,2 hPa 0,0 l/m 0 min 0 min 0 W/m 12,6 km/h (3 Bft)
02.12.2014 05:46 1,6 C 1,1 C 90 % 1012,2 hPa 0,0 l/m 0 min 0 min 0 W/m 18,8 km/h (3 Bft)
02.12.2014 05:48 1,6 C 1,1 C 90 % 1012,2 hPa 0,0 l/m 0 min 0 min 0 W/m 16,7 km/h (3 Bft)
02.12.2014 05:50 1,6 C 1,1 C 90 % 1012,2 hPa 0,0 l/m 0 min 0 min 0 W/m 20,9 km/h (4 Bft)
02.12.2014 05:52 1,6 C 1,1 C 90 % 1012,1 hPa 0,0 l/m 0 min 0 min 0 W/m 16,7 km/h (3 Bft)
02.12.2014 05:54 1,6 C 1,1 C 90 % 1012,1 hPa 0,0 l/m 0 min 0 min 0 W/m 16,7 km/h (3 Bft)
02.12.2014 05:56 1,6 C 1,1 C 90 % 1012,1 hPa 0,0 l/m 0 min 0 min 0 W/m 14,6 km/h (3 Bft)
02.12.2014 05:58 1,6 C 1,1 C 90 % 1012,0 hPa 0,0 l/m 0 min 0 min 0 W/m 12,6 km/h (3 Bft)
02.12.2014 06:00 1,6 C 1,1 C 90 % 1012,0 hPa 0,0 l/m 0 min 0 min 0 W/m 10,5 km/h (2 Bft)
02.12.2014 06:02 1,6 C 1,1 C 90 % 1011,9 hPa 0,0 l/m 0 min 0 min 0 W/m 14,6 km/h (3 Bft)
02.12.2014 06:05 1,6 C 1,1 C 90 % 1011,9 hPa 0,0 l/m 0 min 0 min 0 W/m 12,6 km/h (3 Bft)
02.12.2014 06:08 1,6 C 1,1 C 90 % 1011,9 hPa 0,0 l/m 0 min 0 min 0 W/m 20,9 km/h (4 Bft)
02.12.2014 06:10 1,6 C 1,1 C 89 % 1011,9 hPa 0,0 l/m 0 min 0 min 0 W/m 14,6 km/h (3 Bft)
02.12.2014 06:12 1,6 C 1,1 C 89 % 1011,9 hPa 0,0 l/m 0 min 0 min 0 W/m 18,8 km/h (3 Bft)
02.12.2014 06:14 1,6 C 1,1 C 89 % 1011,8 hPa 0,0 l/m 0 min 0 min 0 W/m 6,3 km/h (2 Bft)
02.12.2014 06:16 1,6 C 1,1 C 89 % 1011,8 hPa 0,0 l/m 0 min 0 min 0 W/m 8,4 km/h (2 Bft)
02.12.2014 06:18 1,6 C 1,1 C 89 % 1011,8 hPa 0,0 l/m 0 min 0 min 0 W/m 14,6 km/h (3 Bft)
02.12.2014 06:20 1,6 C 1,1 C 89 % 1011,9 hPa 0,0 l/m 0 min 0 min 0 W/m 10,5 km/h (2 Bft)
02.12.2014 06:22 1,6 C 1,1 C 89 % 1011,9 hPa 0,0 l/m 0 min 0 min 0 W/m 12,6 km/h (3 Bft)
02.12.2014 06:24 1,6 C 1,1 C 89 % 1011,9 hPa 0,0 l/m 0 min 0 min 0 W/m 16,7 km/h (3 Bft)
02.12.2014 06:26 1,7 C 1,1 C 89 % 1011,9 hPa 0,0 l/m 0 min 0 min 0 W/m 14,6 km/h (3 Bft)
02.12.2014 06:28 1,6 C 1,1 C 89 % 1011,9 hPa 0,0 l/m 0 min 0 min 0 W/m 14,6 km/h (3 Bft)
02.12.2014 06:30 1,6 C 1,1 C 89 % 1011,8 hPa 0,0 l/m 0 min 0 min 0 W/m 14,6 km/h (3 Bft)
02.12.2014 06:32 1,7 C 1,1 C 89 % 1011,8 hPa 0,0 l/m 0 min 0 min 0 W/m 14,6 km/h (3 Bft)
02.12.2014 06:34 1,7 C 1,1 C 89 % 1011,9 hPa 0,0 l/m 0 min 0 min 0 W/m 16,7 km/h (3 Bft)
02.12.2014 06:36 1,7 C 1,1 C 89 % 1011,9 hPa 0,0 l/m 0 min 0 min 0 W/m 14,6 km/h (3 Bft)
02.12.2014 06:38 1,6 C 1,1 C 89 % 1011,9 hPa 0,0 l/m 0 min 0 min 0 W/m 18,8 km/h (3 Bft)
02.12.2014 06:40 1,6 C 1,1 C 89 % 1011,9 hPa 0,0 l/m 0 min 0 min 0 W/m 16,7 km/h (3 Bft)
02.12.2014 06:42 1,6 C 1,1 C 89 % 1011,9 hPa 0,0 l/m 0 min 0 min 0 W/m 10,5 km/h (2 Bft)
02.12.2014 06:44 1,6 C 1,1 C 89 % 1011,9 hPa 0,0 l/m 0 min 0 min 0 W/m 10,5 km/h (2 Bft)
02.12.2014 06:46 1,7 C 1,1 C 89 % 1011,9 hPa 0,0 l/m 0 min 0 min 0 W/m 12,6 km/h (3 Bft)
02.12.2014 06:48 1,7 C 1,1 C 89 % 1011,9 hPa 0,0 l/m 0 min 0 min 0 W/m 16,7 km/h (3 Bft)
02.12.2014 06:50 1,7 C 1,1 C 89 % 1011,9 hPa 0,0 l/m 0 min 0 min 0 W/m 14,6 km/h (3 Bft)
02.12.2014 06:52 1,6 C 1,1 C 89 % 1011,9 hPa 0,0 l/m 0 min 0 min 0 W/m 16,7 km/h (3 Bft)
02.12.2014 06:54 1,7 C 1,1 C 89 % 1011,9 hPa 0,0 l/m 0 min 0 min 0 W/m 10,5 km/h (2 Bft)
02.12.2014 06:56 1,7 C 1,1 C 89 % 1011,9 hPa 0,0 l/m 0 min 0 min 0 W/m 8,4 km/h (2 Bft)
02.12.2014 06:58 1,7 C 1,1 C 89 % 1011,9 hPa 0,0 l/m 0 min 0 min 0 W/m 8,4 km/h (2 Bft)
02.12.2014 07:00 1,7 C 1,1 C 89 % 1011,9 hPa 0,0 l/m 0 min 0 min 0 W/m 6,3 km/h (2 Bft)
02.12.2014 07:02 1,7 C 1,1 C 89 % 1011,9 hPa 0,0 l/m 0 min 0 min 0 W/m 8,4 km/h (2 Bft)
02.12.2014 07:04 1,7 C 1,1 C 89 % 1011,9 hPa 0,0 l/m 0 min 0 min 0 W/m 14,6 km/h (3 Bft)
02.12.2014 07:06 1,7 C 1,1 C 89 % 1011,9 hPa 0,0 l/m 0 min 0 min 0 W/m 18,8 km/h (3 Bft)
02.12.2014 07:08 1,7 C 1,1 C 89 % 1011,9 hPa 0,0 l/m 0 min 0 min 0 W/m 12,6 km/h (3 Bft)
02.12.2014 07:10 1,7 C 1,1 C 89 % 1012,0 hPa 0,0 l/m 0 min 0 min 0 W/m 12,6 km/h (3 Bft)
02.12.2014 07:12 1,7 C 1,1 C 89 % 1012,1 hPa 0,0 l/m 0 min 0 min 0 W/m 6,3 km/h (2 Bft)
02.12.2014 07:14 1,7 C 1,1 C 89 % 1012,1 hPa 0,0 l/m 0 min 0 min 0 W/m 12,6 km/h (3 Bft)
02.12.2014 07:16 1,7 C 1,1 C 89 % 1012,1 hPa 0,0 l/m 0 min 0 min 0 W/m 6,3 km/h (2 Bft)
02.12.2014 07:18 1,7 C 1,1 C 89 % 1012,0 hPa 0,0 l/m 0 min 0 min 0 W/m 8,4 km/h (2 Bft)
02.12.2014 07:20 1,7 C 1,1 C 89 % 1012,1 hPa 0,0 l/m 0 min 0 min 0 W/m 12,6 km/h (3 Bft)
02.12.2014 07:22 1,7 C 1,1 C 89 % 1012,1 hPa 0,0 l/m 0 min 0 min 0 W/m 14,6 km/h (3 Bft)
02.12.2014 07:24 1,7 C 1,1 C 89 % 1012,2 hPa 0,0 l/m 0 min 0 min 0 W/m 20,9 km/h (4 Bft)
02.12.2014 07:26 1,7 C 1,1 C 89 % 1012,2 hPa 0,0 l/m 0 min 0 min 0 W/m 18,8 km/h (3 Bft)
02.12.2014 07:28 1,7 C 1,1 C 89 % 1012,2 hPa 0,0 l/m 0 min 0 min 0 W/m 10,5 km/h (2 Bft)
02.12.2014 07:30 1,7 C 1,1 C 89 % 1012,3 hPa 0,0 l/m 0 min 0 min 0 W/m 6,3 km/h (2 Bft)
02.12.2014 07:32 1,7 C 1,1 C 89 % 1012,3 hPa 0,0 l/m 0 min 0 min 0 W/m 6,3 km/h (2 Bft)
02.12.2014 07:34 1,7 C 1,1 C 89 % 1012,3 hPa 0,0 l/m 0 min 0 min 0 W/m 10,5 km/h (2 Bft)
02.12.2014 07:36 1,7 C 1,1 C 89 % 1012,2 hPa 0,0 l/m 0 min 0 min 0 W/m 16,7 km/h (3 Bft)
02.12.2014 07:38 1,7 C 1,1 C 89 % 1012,2 hPa 0,0 l/m 0 min 0 min 0 W/m 16,7 km/h (3 Bft)
02.12.2014 07:40 1,7 C 1,1 C 89 % 1012,2 hPa 0,0 l/m 0 min 0 min 0 W/m 14,6 km/h (3 Bft)
02.12.2014 07:42 1,7 C 1,1 C 89 % 1012,2 hPa 0,0 l/m 0 min 0 min 0 W/m 10,5 km/h (2 Bft)
02.12.2014 07:44 1,7 C 1,1 C 89 % 1012,2 hPa 0,0 l/m 0 min 0 min 0 W/m 10,5 km/h (2 Bft)
02.12.2014 07:46 1,7 C 1,1 C 89 % 1012,3 hPa 0,0 l/m 0 min 0 min 0 W/m 8,4 km/h (2 Bft)
02.12.2014 07:48 1,7 C 1,1 C 89 % 1012,3 hPa 0,0 l/m 0 min 0 min 0 W/m 12,6 km/h (3 Bft)
02.12.2014 07:50 1,7 C 1,1 C 89 % 1012,3 hPa 0,0 l/m 0 min 0 min 0 W/m 8,4 km/h (2 Bft)
02.12.2014 07:52 1,7 C 1,1 C 89 % 1012,2 hPa 0,0 l/m 0 min 0 min 0 W/m 12,6 km/h (3 Bft)
02.12.2014 07:54 1,7 C 1,1 C 89 % 1012,3 hPa 0,0 l/m 0 min 0 min 0 W/m 16,7 km/h (3 Bft)
02.12.2014 07:56 1,7 C 1,1 C 89 % 1012,3 hPa 0,0 l/m 0 min 0 min 0 W/m 14,6 km/h (3 Bft)
02.12.2014 07:58 1,7 C 1,1 C 89 % 1012,4 hPa 0,0 l/m 0 min 0 min 0 W/m 14,6 km/h (3 Bft)
02.12.2014 08:00 1,7 C 1,1 C 89 % 1012,4 hPa 0,0 l/m 0 min 0 min 0 W/m 12,6 km/h (3 Bft)
02.12.2014 08:02 1,7 C 1,1 C 89 % 1012,4 hPa 0,0 l/m 0 min 0 min 0 W/m 10,5 km/h (2 Bft)
02.12.2014 08:04 1,7 C 1,1 C 89 % 1012,4 hPa 0,0 l/m 0 min 0 min 0 W/m 6,3 km/h (2 Bft)
02.12.2014 08:06 1,7 C 1,1 C 89 % 1012,4 hPa 0,0 l/m 0 min 0 min 0 W/m 10,5 km/h (2 Bft)
02.12.2014 08:08 1,7 C 1,1 C 89 % 1012,5 hPa 0,0 l/m 0 min 0 min 0 W/m 4,2 km/h (1 Bft)
02.12.2014 08:10 1,7 C 1,1 C 89 % 1012,6 hPa 0,0 l/m 0 min 0 min 0 W/m 6,3 km/h (2 Bft)
02.12.2014 08:12 1,7 C 1,1 C 89 % 1012,6 hPa 0,0 l/m 0 min 0 min 0 W/m 6,3 km/h (2 Bft)
02.12.2014 08:14 1,7 C 1,1 C 89 % 1012,6 hPa 0,0 l/m 0 min 0 min 0 W/m 12,6 km/h (3 Bft)
02.12.2014 08:16 1,7 C 1,1 C 89 % 1012,6 hPa 0,0 l/m 0 min 0 min 0 W/m 10,5 km/h (2 Bft)
02.12.2014 08:18 1,7 C 1,1 C 89 % 1012,7 hPa 0,0 l/m 0 min 0 min 0 W/m 10,5 km/h (2 Bft)
02.12.2014 08:20 1,7 C 1,1 C 89 % 1012,7 hPa 0,0 l/m 0 min 0 min 0 W/m 8,4 km/h (2 Bft)
02.12.2014 08:22 1,7 C 1,1 C 89 % 1012,7 hPa 0,0 l/m 0 min 0 min 0 W/m 8,4 km/h (2 Bft)
02.12.2014 08:24 1,7 C 1,1 C 89 % 1012,7 hPa 0,0 l/m 0 min 0 min 0 W/m 14,6 km/h (3 Bft)
02.12.2014 08:26 1,7 C 1,1 C 89 % 1012,7 hPa 0,0 l/m 0 min 0 min 0 W/m 6,3 km/h (2 Bft)
02.12.2014 08:28 1,7 C 1,1 C 89 % 1012,8 hPa 0,0 l/m 0 min 0 min 5 W/m 8,4 km/h (2 Bft)
02.12.2014 08:30 1,7 C 1,1 C 89 % 1012,8 hPa 0,0 l/m 0 min 0 min 5 W/m 10,5 km/h (2 Bft)
02.12.2014 08:32 1,7 C 1,1 C 89 % 1012,7 hPa 0,0 l/m 0 min 0 min 5 W/m 8,4 km/h (2 Bft)
02.12.2014 08:34 1,7 C 1,1 C 89 % 1012,7 hPa 0,0 l/m 0 min 0 min 7 W/m 10,5 km/h (2 Bft)
02.12.2014 08:36 1,7 C 1,1 C 89 % 1012,7 hPa 0,0 l/m 0 min 0 min 7 W/m 10,5 km/h (2 Bft)
02.12.2014 08:38 1,7 C 1,1 C 89 % 1012,8 hPa 0,0 l/m 0 min 0 min 7 W/m 8,4 km/h (2 Bft)
02.12.2014 08:40 1,7 C 1,1 C 89 % 1012,8 hPa 0,0 l/m 0 min 0 min 8 W/m 6,3 km/h (2 Bft)
02.12.2014 08:42 1,7 C 1,1 C 89 % 1012,8 hPa 0,0 l/m 0 min 0 min 9 W/m 10,5 km/h (2 Bft)
02.12.2014 08:44 1,7 C 1,1 C 89 % 1012,8 hPa 0,0 l/m 0 min 0 min 10 W/m 8,4 km/h (2 Bft)
02.12.2014 08:46 1,7 C 1,1 C 89 % 1012,8 hPa 0,0 l/m 0 min 0 min 11 W/m 6,3 km/h (2 Bft)
02.12.2014 08:48 1,7 C 1,1 C 89 % 1012,8 hPa 0,0 l/m 0 min 0 min 11 W/m 8,4 km/h (2 Bft)
02.12.2014 08:50 1,7 C 1,1 C 89 % 1012,8 hPa 0,0 l/m 0 min 0 min 12 W/m 10,5 km/h (2 Bft)
02.12.2014 08:52 1,7 C 1,1 C 89 % 1012,8 hPa 0,0 l/m 0 min 0 min 12 W/m 10,5 km/h (2 Bft)
02.12.2014 08:54 1,7 C 1,1 C 89 % 1012,8 hPa 0,0 l/m 0 min 0 min 12 W/m 10,5 km/h (2 Bft)
02.12.2014 08:56 1,7 C 1,1 C 89 % 1012,8 hPa 0,0 l/m 0 min 0 min 12 W/m 6,3 km/h (2 Bft)
02.12.2014 08:58 1,7 C 1,1 C 89 % 1012,8 hPa 0,0 l/m 0 min 0 min 13 W/m 8,4 km/h (2 Bft)
02.12.2014 09:00 1,7 C 1,1 C 89 % 1012,8 hPa 0,0 l/m 0 min 0 min 12 W/m 10,5 km/h (2 Bft)
02.12.2014 09:02 1,7 C 1,1 C 89 % 1012,9 hPa 0,0 l/m 0 min 0 min 12 W/m 10,5 km/h (2 Bft)
02.12.2014 09:04 1,7 C 1,1 C 89 % 1012,9 hPa 0,0 l/m 0 min 0 min 15 W/m 10,5 km/h (2 Bft)
02.12.2014 09:06 1,7 C 1,1 C 89 % 1012,9 hPa 0,0 l/m 0 min 0 min 18 W/m 10,5 km/h (2 Bft)
02.12.2014 09:08 1,7 C 1,1 C 89 % 1012,9 hPa 0,0 l/m 0 min 0 min 19 W/m 6,3 km/h (2 Bft)
02.12.2014 09:10 1,7 C 1,1 C 89 % 1012,8 hPa 0,0 l/m 0 min 0 min 20 W/m 8,4 km/h (2 Bft)
02.12.2014 09:12 1,7 C 1,1 C 89 % 1012,9 hPa 0,0 l/m 0 min 0 min 23 W/m 10,5 km/h (2 Bft)
02.12.2014 09:14 1,7 C 1,1 C 89 % 1012,9 hPa 0,0 l/m 0 min 0 min 26 W/m 8,4 km/h (2 Bft)
02.12.2014 09:16 1,7 C 1,1 C 89 % 1012,9 hPa 0,0 l/m 0 min 0 min 26 W/m 10,5 km/h (2 Bft)
02.12.2014 09:18 1,7 C 1,1 C 89 % 1012,9 hPa 0,0 l/m 0 min 0 min 23 W/m 8,4 km/h (2 Bft)
02.12.2014 09:20 1,7 C 1,1 C 89 % 1012,9 hPa 0,0 l/m 0 min 0 min 23 W/m 10,5 km/h (2 Bft)
02.12.2014 09:22 1,7 C 1,1 C 89 % 1012,9 hPa 0,0 l/m 0 min 0 min 24 W/m 10,5 km/h (2 Bft)
02.12.2014 09:24 1,7 C 1,1 C 89 % 1012,9 hPa 0,0 l/m 0 min 0 min 25 W/m 10,5 km/h (2 Bft)
02.12.2014 09:26 1,8 C 1,1 C 89 % 1013,0 hPa 0,0 l/m 0 min 0 min 28 W/m 8,4 km/h (2 Bft)
02.12.2014 09:28 1,8 C 1,1 C 89 % 1012,9 hPa 0,0 l/m 0 min 0 min 29 W/m 6,3 km/h (2 Bft)
02.12.2014 09:30 1,8 C 1,1 C 89 % 1013,0 hPa 0,0 l/m 0 min 0 min 26 W/m 6,3 km/h (2 Bft)
02.12.2014 09:32 1,8 C 1,1 C 89 % 1013,0 hPa 0,0 l/m 0 min 0 min 25 W/m 8,4 km/h (2 Bft)
02.12.2014 09:34 1,8 C 1,1 C 89 % 1012,9 hPa 0,0 l/m 0 min 0 min 25 W/m 6,3 km/h (2 Bft)
02.12.2014 09:36 1,8 C 1,1 C 89 % 1013,0 hPa 0,0 l/m 0 min 0 min 23 W/m 6,3 km/h (2 Bft)
02.12.2014 09:38 1,8 C 1,1 C 89 % 1013,1 hPa 0,0 l/m 0 min 0 min 21 W/m 6,3 km/h (2 Bft)
02.12.2014 09:40 1,8 C 1,1 C 89 % 1013,1 hPa 0,0 l/m 0 min 0 min 20 W/m 8,4 km/h (2 Bft)
02.12.2014 09:42 1,8 C 1,1 C 89 % 1013,1 hPa 0,0 l/m 0 min 0 min 19 W/m 6,3 km/h (2 Bft)
02.12.2014 09:44 1,9 C 1,1 C 89 % 1013,1 hPa 0,0 l/m 0 min 0 min 18 W/m 8,4 km/h (2 Bft)
02.12.2014 09:46 1,9 C 1,1 C 89 % 1013,1 hPa 0,0 l/m 0 min 0 min 18 W/m 8,4 km/h (2 Bft)
02.12.2014 09:48 1,9 C 1,1 C 89 % 1013,1 hPa 0,0 l/m 0 min 0 min 16 W/m 6,3 km/h (2 Bft)
02.12.2014 09:50 1,9 C 1,1 C 89 % 1013,1 hPa 0,0 l/m 0 min 0 min 19 W/m 8,4 km/h (2 Bft)
02.12.2014 09:52 1,9 C 1,1 C 89 % 1013,1 hPa 0,0 l/m 0 min 0 min 21 W/m 8,4 km/h (2 Bft)
02.12.2014 09:54 1,9 C 1,7 C 89 % 1013,1 hPa 0,0 l/m 0 min 0 min 23 W/m 10,5 km/h (2 Bft)
02.12.2014 09:56 1,9 C 1,7 C 89 % 1013,1 hPa 0,0 l/m 0 min 0 min 25 W/m 10,5 km/h (2 Bft)
02.12.2014 09:58 1,9 C 1,7 C 89 % 1013,1 hPa 0,0 l/m 0 min 0 min 28 W/m 6,3 km/h (2 Bft)
02.12.2014 10:00 1,9 C 1,7 C 89 % 1013,1 hPa 0,0 l/m 0 min 0 min 31 W/m 6,3 km/h (2 Bft)
02.12.2014 10:02 1,9 C 1,7 C 89 % 1013,1 hPa 0,0 l/m 0 min 0 min 33 W/m 8,4 km/h (2 Bft)
02.12.2014 10:04 1,9 C 1,7 C 89 % 1013,0 hPa 0,0 l/m 0 min 0 min 32 W/m 10,5 km/h (2 Bft)
02.12.2014 10:06 2,0 C 1,7 C 89 % 1013,0 hPa 0,0 l/m 0 min 0 min 34 W/m 8,4 km/h (2 Bft)
02.12.2014 10:08 2,0 C 1,7 C 89 % 1013,1 hPa 0,0 l/m 0 min 0 min 36 W/m 8,4 km/h (2 Bft)
02.12.2014 10:10 2,0 C 1,7 C 89 % 1013,1 hPa 0,0 l/m 0 min 0 min 35 W/m 8,4 km/h (2 Bft)
02.12.2014 10:12 2,0 C 1,7 C 89 % 1013,1 hPa 0,0 l/m 0 min 0 min 36 W/m 8,4 km/h (2 Bft)
02.12.2014 10:14 2,1 C 1,7 C 89 % 1013,1 hPa 0,0 l/m 0 min 0 min 36 W/m 10,5 km/h (2 Bft)
02.12.2014 10:16 2,1 C 1,7 C 89 % 1013,1 hPa 0,0 l/m 0 min 0 min 35 W/m 8,4 km/h (2 Bft)
02.12.2014 10:18 2,1 C 1,7 C 89 % 1013,2 hPa 0,0 l/m 0 min 0 min 35 W/m 8,4 km/h (2 Bft)
02.12.2014 10:20 2,1 C 1,7 C 89 % 1013,2 hPa 0,0 l/m 0 min 0 min 35 W/m 12,6 km/h (3 Bft)
02.12.2014 10:22 2,1 C 1,7 C 88 % 1013,2 hPa 0,0 l/m 0 min 0 min 36 W/m 14,6 km/h (3 Bft)
02.12.2014 10:24 2,1 C 1,7 C 88 % 1013,2 hPa 0,0 l/m 0 min 0 min 39 W/m 12,6 km/h (3 Bft)
02.12.2014 10:26 2,1 C 1,7 C 88 % 1013,2 hPa 0,0 l/m 0 min 0 min 40 W/m 12,6 km/h (3 Bft)
02.12.2014 10:28 2,1 C 1,7 C 88 % 1013,2 hPa 0,0 l/m 0 min 0 min 40 W/m 12,6 km/h (3 Bft)
02.12.2014 10:30 2,1 C 1,7 C 88 % 1013,3 hPa 0,0 l/m 0 min 0 min 40 W/m 14,6 km/h (3 Bft)
02.12.2014 10:32 2,1 C 1,7 C 88 % 1013,3 hPa 0,0 l/m 0 min 0 min 40 W/m 14,6 km/h (3 Bft)
02.12.2014 10:34 2,1 C 1,7 C 88 % 1013,3 hPa 0,0 l/m 0 min 0 min 41 W/m 12,6 km/h (3 Bft)
02.12.2014 10:36 2,1 C 1,7 C 88 % 1013,3 hPa 0,0 l/m 0 min 0 min 45 W/m 12,6 km/h (3 Bft)
02.12.2014 10:38 2,1 C 1,7 C 88 % 1013,3 hPa 0,0 l/m 0 min 0 min 49 W/m 10,5 km/h (2 Bft)
02.12.2014 10:40 2,1 C 1,7 C 88 % 1013,4 hPa 0,0 l/m 0 min 0 min 49 W/m 14,6 km/h (3 Bft)
02.12.2014 10:42 2,1 C 1,7 C 88 % 1013,5 hPa 0,0 l/m 0 min 0 min 46 W/m 12,6 km/h (3 Bft)
02.12.2014 10:44 2,1 C 1,7 C 88 % 1013,4 hPa 0,0 l/m 0 min 0 min 48 W/m 12,6 km/h (3 Bft)
02.12.2014 10:46 2,1 C 1,7 C 88 % 1013,5 hPa 0,0 l/m 0 min 0 min 43 W/m 10,5 km/h (2 Bft)
02.12.2014 10:48 2,1 C 1,7 C 88 % 1013,5 hPa 0,0 l/m 0 min 0 min 44 W/m 10,5 km/h (2 Bft)
02.12.2014 10:50 2,1 C 1,7 C 88 % 1013,5 hPa 0,0 l/m 0 min 0 min 48 W/m 12,6 km/h (3 Bft)
02.12.2014 10:52 2,1 C 1,7 C 88 % 1013,5 hPa 0,0 l/m 0 min 0 min 46 W/m 12,6 km/h (3 Bft)
02.12.2014 10:54 2,1 C 1,7 C 87 % 1013,4 hPa 0,0 l/m 0 min 0 min 42 W/m 12,6 km/h (3 Bft)
02.12.2014 10:56 2,1 C 1,7 C 87 % 1013,4 hPa 0,0 l/m 0 min 0 min 41 W/m 14,6 km/h (3 Bft)
02.12.2014 10:58 2,1 C 1,7 C 87 % 1013,4 hPa 0,0 l/m 0 min 0 min 45 W/m 14,6 km/h (3 Bft)
02.12.2014 11:00 2,1 C 1,7 C 87 % 1013,4 hPa 0,0 l/m 0 min 0 min 47 W/m 14,6 km/h (3 Bft)
02.12.2014 11:02 2,1 C 1,7 C 87 % 1013,4 hPa 0,0 l/m 0 min 0 min 49 W/m 12,6 km/h (3 Bft)
02.12.2014 11:04 2,1 C 1,7 C 87 % 1013,4 hPa 0,0 l/m 0 min 0 min 52 W/m 14,6 km/h (3 Bft)
02.12.2014 11:06 2,1 C 1,7 C 87 % 1013,4 hPa 0,0 l/m 0 min 0 min 56 W/m 14,6 km/h (3 Bft)
02.12.2014 11:08 2,1 C 1,7 C 87 % 1013,5 hPa 0,0 l/m 0 min 0 min 58 W/m 14,6 km/h (3 Bft)
02.12.2014 11:10 2,1 C 1,7 C 87 % 1013,5 hPa 0,0 l/m 0 min 0 min 62 W/m 14,6 km/h (3 Bft)
02.12.2014 11:12 2,1 C 1,7 C 87 % 1013,5 hPa 0,0 l/m 0 min 0 min 63 W/m 14,6 km/h (3 Bft)
02.12.2014 11:14 2,1 C 1,7 C 87 % 1013,5 hPa 0,0 l/m 0 min 0 min 65 W/m 12,6 km/h (3 Bft)
02.12.2014 11:16 2,1 C 1,7 C 87 % 1013,5 hPa 0,0 l/m 0 min 0 min 67 W/m 12,6 km/h (3 Bft)
02.12.2014 11:18 2,2 C 1,7 C 87 % 1013,4 hPa 0,0 l/m 0 min 0 min 70 W/m 16,7 km/h (3 Bft)
02.12.2014 11:20 2,2 C 1,7 C 87 % 1013,4 hPa 0,0 l/m 0 min 0 min 67 W/m 12,6 km/h (3 Bft)
02.12.2014 11:22 2,2 C 1,7 C 87 % 1013,4 hPa 0,0 l/m 0 min 0 min 64 W/m 12,6 km/h (3 Bft)
02.12.2014 11:24 2,2 C 1,7 C 87 % 1013,4 hPa 0,0 l/m 0 min 0 min 61 W/m 14,6 km/h (3 Bft)
02.12.2014 11:26 2,2 C 1,7 C 87 % 1013,5 hPa 0,0 l/m 0 min 0 min 58 W/m 12,6 km/h (3 Bft)
02.12.2014 11:28 2,2 C 1,7 C 87 % 1013,5 hPa 0,0 l/m 0 min 0 min 56 W/m 14,6 km/h (3 Bft)
02.12.2014 11:30 2,2 C 1,7 C 87 % 1013,5 hPa 0,0 l/m 0 min 0 min 54 W/m 16,7 km/h (3 Bft)
02.12.2014 11:32 2,2 C 1,7 C 87 % 1013,5 hPa 0,0 l/m 0 min 0 min 57 W/m 16,7 km/h (3 Bft)
02.12.2014 11:34 2,2 C 1,7 C 86 % 1013,5 hPa 0,0 l/m 0 min 0 min 57 W/m 16,7 km/h (3 Bft)
02.12.2014 11:36 2,2 C 1,7 C 86 % 1013,5 hPa 0,0 l/m 0 min 0 min 59 W/m 16,7 km/h (3 Bft)
02.12.2014 11:38 2,2 C 1,7 C 86 % 1013,4 hPa 0,0 l/m 0 min 0 min 62 W/m 20,9 km/h (4 Bft)
02.12.2014 11:40 2,2 C 1,7 C 86 % 1013,4 hPa 0,0 l/m 0 min 0 min 63 W/m 16,7 km/h (3 Bft)
02.12.2014 11:42 2,2 C 1,7 C 86 % 1013,5 hPa 0,0 l/m 0 min 0 min 62 W/m 16,7 km/h (3 Bft)
02.12.2014 11:44 2,2 C 1,7 C 86 % 1013,5 hPa 0,0 l/m 0 min 0 min 57 W/m 16,7 km/h (3 Bft)
02.12.2014 11:46 2,2 C 1,7 C 86 % 1013,5 hPa 0,0 l/m 0 min 0 min 52 W/m 20,9 km/h (4 Bft)
02.12.2014 11:48 2,2 C 1,7 C 86 % 1013,5 hPa 0,0 l/m 0 min 0 min 53 W/m 18,8 km/h (3 Bft)
02.12.2014 11:50 2,1 C 1,7 C 86 % 1013,4 hPa 0,0 l/m 0 min 0 min 59 W/m 16,7 km/h (3 Bft)
02.12.2014 11:52 2,1 C 1,7 C 86 % 1013,3 hPa 0,0 l/m 0 min 0 min 66 W/m 18,8 km/h (3 Bft)
02.12.2014 11:54 2,1 C 1,7 C 86 % 1013,3 hPa 0,0 l/m 0 min 0 min 70 W/m 14,6 km/h (3 Bft)
02.12.2014 11:56 2,1 C 1,7 C 86 % 1013,5 hPa 0,0 l/m 0 min 0 min 70 W/m 14,6 km/h (3 Bft)
02.12.2014 11:58 2,1 C 1,7 C 86 % 1013,4 hPa 0,0 l/m 0 min 0 min 69 W/m 12,6 km/h (3 Bft)
02.12.2014 12:00 2,1 C 1,7 C 86 % 1013,5 hPa 0,0 l/m 0 min 0 min 68 W/m 16,7 km/h (3 Bft)
02.12.2014 12:02 2,1 C 1,7 C 86 % 1013,4 hPa 0,0 l/m 0 min 0 min 68 W/m 18,8 km/h (3 Bft)
02.12.2014 12:05 2,1 C 1,7 C 86 % 1013,4 hPa 0,0 l/m 0 min 0 min 70 W/m 16,7 km/h (3 Bft)
02.12.2014 12:08 2,1 C 1,7 C 86 % 1013,3 hPa 0,0 l/m 0 min 0 min 72 W/m 16,7 km/h (3 Bft)
02.12.2014 12:10 2,1 C 1,7 C 86 % 1013,4 hPa 0,0 l/m 0 min 0 min 77 W/m 14,6 km/h (3 Bft)
02.12.2014 12:12 2,1 C 1,7 C 86 % 1013,3 hPa 0,0 l/m 0 min 0 min 76 W/m 16,7 km/h (3 Bft)
02.12.2014 12:14 2,1 C 1,7 C 86 % 1013,5 hPa 0,0 l/m 0 min 0 min 76 W/m 16,7 km/h (3 Bft)
02.12.2014 12:16 2,1 C 1,7 C 86 % 1013,5 hPa 0,0 l/m 0 min 0 min 69 W/m 16,7 km/h (3 Bft)
02.12.2014 12:18 2,1 C 1,7 C 86 % 1013,5 hPa 0,0 l/m 0 min 0 min 61 W/m 16,7 km/h (3 Bft)
02.12.2014 12:20 2,1 C 1,7 C 86 % 1013,5 hPa 0,0 l/m 0 min 0 min 61 W/m 16,7 km/h (3 Bft)
02.12.2014 12:22 2,1 C 1,7 C 86 % 1013,4 hPa 0,0 l/m 0 min 0 min 65 W/m 16,7 km/h (3 Bft)
02.12.2014 12:24 2,1 C 1,7 C 86 % 1013,3 hPa 0,0 l/m 0 min 0 min 76 W/m 23,0 km/h (4 Bft)
02.12.2014 12:26 2,1 C 1,7 C 86 % 1013,3 hPa 0,0 l/m 0 min 0 min 79 W/m 20,9 km/h (4 Bft)
02.12.2014 12:28 2,1 C 1,7 C 86 % 1013,3 hPa 0,0 l/m 0 min 0 min 78 W/m 16,7 km/h (3 Bft)
02.12.2014 12:30 2,1 C 1,7 C 86 % 1013,3 hPa 0,0 l/m 0 min 0 min 73 W/m 16,7 km/h (3 Bft)
02.12.2014 12:32 2,1 C 1,7 C 86 % 1013,2 hPa 0,0 l/m 0 min 0 min 73 W/m 16,7 km/h (3 Bft)
02.12.2014 12:34 2,1 C 1,7 C 86 % 1013,2 hPa 0,0 l/m 0 min 0 min 74 W/m 12,6 km/h (3 Bft)
02.12.2014 12:36 2,1 C 1,7 C 86 % 1013,2 hPa 0,0 l/m 0 min 0 min 68 W/m 12,6 km/h (3 Bft)
02.12.2014 12:38 2,1 C 1,7 C 86 % 1013,2 hPa 0,0 l/m 0 min 0 min 63 W/m 12,6 km/h (3 Bft)
02.12.2014 12:40 2,1 C 1,7 C 86 % 1013,3 hPa 0,0 l/m 0 min 0 min 61 W/m 10,5 km/h (2 Bft)
02.12.2014 12:42 2,1 C 1,7 C 86 % 1013,3 hPa 0,0 l/m 0 min 0 min 60 W/m 14,6 km/h (3 Bft)
02.12.2014 12:44 2,1 C 1,7 C 86 % 1013,3 hPa 0,0 l/m 0 min 0 min 58 W/m 14,6 km/h (3 Bft)
02.12.2014 12:46 2,1 C 1,7 C 86 % 1013,4 hPa 0,0 l/m 0 min 0 min 54 W/m 14,6 km/h (3 Bft)
02.12.2014 12:48 2,1 C 1,7 C 86 % 1013,4 hPa 0,0 l/m 0 min 0 min 55 W/m 16,7 km/h (3 Bft)
02.12.2014 12:50 2,1 C 1,7 C 86 % 1013,4 hPa 0,0 l/m 0 min 0 min 59 W/m 14,6 km/h (3 Bft)
02.12.2014 12:52 2,1 C 1,7 C 86 % 1013,5 hPa 0,0 l/m 0 min 0 min 61 W/m 16,7 km/h (3 Bft)
02.12.2014 12:54 2,1 C 1,7 C 86 % 1013,5 hPa 0,0 l/m 0 min 0 min 62 W/m 16,7 km/h (3 Bft)
02.12.2014 12:56 2,1 C 1,7 C 86 % 1013,5 hPa 0,0 l/m 0 min 0 min 64 W/m 20,9 km/h (4 Bft)
02.12.2014 12:58 2,1 C 1,7 C 86 % 1013,5 hPa 0,0 l/m 0 min 0 min 65 W/m 16,7 km/h (3 Bft)
02.12.2014 13:00 2,1 C 1,7 C 86 % 1013,4 hPa 0,0 l/m 0 min 0 min 67 W/m 12,6 km/h (3 Bft)
02.12.2014 13:02 2,1 C 1,7 C 86 % 1013,5 hPa 0,0 l/m 0 min 0 min 69 W/m 20,9 km/h (4 Bft)
02.12.2014 13:04 2,1 C 1,7 C 86 % 1013,5 hPa 0,0 l/m 0 min 0 min 70 W/m 20,9 km/h (4 Bft)
02.12.2014 13:06 2,1 C 1,7 C 85 % 1013,5 hPa 0,0 l/m 0 min 0 min 73 W/m 18,8 km/h (3 Bft)
02.12.2014 13:08 2,1 C 1,7 C 85 % 1013,5 hPa 0,0 l/m 0 min 0 min 77 W/m 20,9 km/h (4 Bft)
02.12.2014 13:10 2,1 C 1,7 C 85 % 1013,5 hPa 0,0 l/m 0 min 0 min 80 W/m 18,8 km/h (3 Bft)
02.12.2014 13:12 2,1 C 1,7 C 85 % 1013,4 hPa 0,0 l/m 0 min 0 min 87 W/m 20,9 km/h (4 Bft)
02.12.2014 13:14 2,1 C 1,7 C 85 % 1013,4 hPa 0,0 l/m 0 min 0 min 88 W/m 20,9 km/h (4 Bft)
02.12.2014 13:16 2,1 C 1,7 C 85 % 1013,4 hPa 0,0 l/m 0 min 0 min 87 W/m 14,6 km/h (3 Bft)
02.12.2014 13:18 2,1 C 1,7 C 85 % 1013,3 hPa 0,0 l/m 0 min 0 min 92 W/m 16,7 km/h (3 Bft)
02.12.2014 13:20 2,2 C 1,7 C 85 % 1013,2 hPa 0,0 l/m 0 min 0 min 97 W/m 23,0 km/h (4 Bft)
02.12.2014 13:22 2,2 C 1,7 C 85 % 1013,3 hPa 0,0 l/m 0 min 0 min 99 W/m 23,0 km/h (4 Bft)
02.12.2014 13:24 2,2 C 1,7 C 85 % 1013,4 hPa 0,0 l/m 0 min 0 min 97 W/m 20,9 km/h (4 Bft)
02.12.2014 13:26 2,2 C 1,7 C 85 % 1013,2 hPa 0,0 l/m 0 min 0 min 95 W/m 18,8 km/h (3 Bft)
02.12.2014 13:28 2,2 C 1,7 C 85 % 1013,3 hPa 0,0 l/m 0 min 0 min 90 W/m 18,8 km/h (3 Bft)
02.12.2014 13:30 2,3 C 2,2 C 85 % 1013,2 hPa 0,0 l/m 0 min 0 min 88 W/m 16,7 km/h (3 Bft)
02.12.2014 13:32 2,3 C 2,2 C 85 % 1013,3 hPa 0,0 l/m 0 min 0 min 87 W/m 16,7 km/h (3 Bft)
02.12.2014 13:34 2,3 C 1,7 C 85 % 1013,3 hPa 0,0 l/m 0 min 0 min 87 W/m 12,6 km/h (3 Bft)
02.12.2014 13:36 2,3 C 1,7 C 85 % 1013,4 hPa 0,0 l/m 0 min 0 min 85 W/m 12,6 km/h (3 Bft)
02.12.2014 13:38 2,3 C 1,7 C 85 % 1013,4 hPa 0,0 l/m 0 min 0 min 86 W/m 18,8 km/h (3 Bft)
02.12.2014 13:40 2,3 C 1,7 C 85 % 1013,3 hPa 0,0 l/m 0 min 0 min 90 W/m 12,6 km/h (3 Bft)
02.12.2014 13:42 2,3 C 1,7 C 86 % 1013,3 hPa 0,0 l/m 0 min 0 min 92 W/m 14,6 km/h (3 Bft)
02.12.2014 13:44 2,3 C 1,7 C 86 % 1013,4 hPa 0,0 l/m 0 min 0 min 92 W/m 16,7 km/h (3 Bft)
02.12.2014 13:46 2,4 C 1,7 C 86 % 1013,5 hPa 0,0 l/m 0 min 0 min 90 W/m 18,8 km/h (3 Bft)
02.12.2014 13:48 2,3 C 1,7 C 86 % 1013,4 hPa 0,0 l/m 0 min 0 min 95 W/m 16,7 km/h (3 Bft)
02.12.2014 13:50 2,3 C 1,7 C 86 % 1013,5 hPa 0,0 l/m 0 min 0 min 97 W/m 18,8 km/h (3 Bft)
02.12.2014 13:52 2,3 C 1,7 C 86 % 1013,4 hPa 0,0 l/m 0 min 0 min 103 W/m 23,0 km/h (4 Bft)
02.12.2014 13:54 2,3 C 1,7 C 86 % 1013,5 hPa 0,0 l/m 0 min 0 min 108 W/m 16,7 km/h (3 Bft)
02.12.2014 13:56 2,3 C 1,7 C 86 % 1013,5 hPa 0,0 l/m 0 min 0 min 103 W/m 16,7 km/h (3 Bft)
02.12.2014 13:58 2,2 C 1,7 C 86 % 1013,5 hPa 0,0 l/m 0 min 0 min 100 W/m 18,8 km/h (3 Bft)
02.12.2014 14:00 2,2 C 1,7 C 86 % 1013,5 hPa 0,0 l/m 0 min 0 min 102 W/m 14,6 km/h (3 Bft)
02.12.2014 14:02 2,2 C 1,7 C 86 % 1013,5 hPa 0,0 l/m 0 min 0 min 101 W/m 16,7 km/h (3 Bft)
02.12.2014 14:04 2,2 C 1,7 C 86 % 1013,5 hPa 0,0 l/m 0 min 0 min 93 W/m 20,9 km/h (4 Bft)
02.12.2014 14:06 2,2 C 1,7 C 86 % 1013,4 hPa 0,0 l/m 0 min 0 min 93 W/m 14,6 km/h (3 Bft)
02.12.2014 14:08 2,1 C 1,7 C 86 % 1013,5 hPa 0,0 l/m 0 min 0 min 91 W/m 14,6 km/h (3 Bft)
02.12.2014 14:10 2,1 C 1,7 C 86 % 1013,5 hPa 0,0 l/m 0 min 0 min 86 W/m 12,6 km/h (3 Bft)
02.12.2014 14:12 2,1 C 1,7 C 86 % 1013,5 hPa 0,0 l/m 0 min 0 min 82 W/m 23,0 km/h (4 Bft)
02.12.2014 14:14 2,1 C 1,7 C 86 % 1013,5 hPa 0,0 l/m 0 min 0 min 80 W/m 18,8 km/h (3 Bft)
02.12.2014 14:16 2,1 C 1,7 C 86 % 1013,5 hPa 0,0 l/m 0 min 0 min 77 W/m 16,7 km/h (3 Bft)
02.12.2014 14:18 2,1 C 1,7 C 86 % 1013,5 hPa 0,0 l/m 0 min 0 min 76 W/m 14,6 km/h (3 Bft)
02.12.2014 14:20 2,0 C 1,7 C 86 % 1013,5 hPa 0,0 l/m 0 min 0 min 79 W/m 18,8 km/h (3 Bft)
02.12.2014 14:22 2,0 C 1,7 C 86 % 1013,5 hPa 0,0 l/m 0 min 0 min 82 W/m 25,1 km/h (4 Bft)
02.12.2014 14:24 2,0 C 1,7 C 86 % 1013,5 hPa 0,0 l/m 0 min 0 min 85 W/m 20,9 km/h (4 Bft)
02.12.2014 14:26 2,0 C 1,7 C 86 % 1013,5 hPa 0,0 l/m 0 min 0 min 87 W/m 20,9 km/h (4 Bft)
02.12.2014 14:28 2,0 C 1,7 C 86 % 1013,5 hPa 0,0 l/m 0 min 0 min 84 W/m 25,1 km/h (4 Bft)
02.12.2014 14:30 1,9 C 1,7 C 86 % 1013,5 hPa 0,0 l/m 0 min 0 min 77 W/m 25,1 km/h (4 Bft)
02.12.2014 14:32 1,9 C 1,7 C 86 % 1013,5 hPa 0,0 l/m 0 min 0 min 74 W/m 20,9 km/h (4 Bft)
02.12.2014 14:34 1,9 C 1,7 C 86 % 1013,5 hPa 0,0 l/m 0 min 0 min 71 W/m 18,8 km/h (3 Bft)
02.12.2014 14:36 1,9 C 1,1 C 86 % 1013,5 hPa 0,0 l/m 0 min 0 min 70 W/m 29,3 km/h (5 Bft)
02.12.2014 14:38 1,9 C 1,1 C 86 % 1013,5 hPa 0,0 l/m 0 min 0 min 70 W/m 25,1 km/h (4 Bft)
02.12.2014 14:40 1,9 C 1,1 C 86 % 1013,5 hPa 0,0 l/m 0 min 0 min 67 W/m 23,0 km/h (4 Bft)
02.12.2014 14:42 1,9 C 1,1 C 86 % 1013,4 hPa 0,0 l/m 0 min 0 min 64 W/m 23,0 km/h (4 Bft)
02.12.2014 14:44 1,9 C 1,1 C 86 % 1013,5 hPa 0,0 l/m 0 min 0 min 58 W/m 27,2 km/h (4 Bft)
02.12.2014 14:46 1,9 C 1,1 C 86 % 1013,5 hPa 0,0 l/m 0 min 0 min 54 W/m 23,0 km/h (4 Bft)
02.12.2014 14:48 1,9 C 1,1 C 86 % 1013,5 hPa 0,0 l/m 0 min 0 min 48 W/m 18,8 km/h (3 Bft)
02.12.2014 14:50 1,9 C 1,1 C 86 % 1013,6 hPa 0,0 l/m 0 min 0 min 44 W/m 20,9 km/h (4 Bft)
02.12.2014 14:52 1,9 C 1,1 C 86 % 1013,6 hPa 0,0 l/m 0 min 0 min 44 W/m 16,7 km/h (3 Bft)
02.12.2014 14:54 1,9 C 1,1 C 86 % 1013,6 hPa 0,0 l/m 0 min 0 min 44 W/m 20,9 km/h (4 Bft)
02.12.2014 14:56 1,9 C 1,1 C 86 % 1013,7 hPa 0,0 l/m 0 min 0 min 46 W/m 16,7 km/h (3 Bft)
02.12.2014 14:58 1,9 C 1,1 C 86 % 1013,7 hPa 0,0 l/m 0 min 0 min 46 W/m 18,8 km/h (3 Bft)
02.12.2014 15:00 1,9 C 1,1 C 86 % 1013,8 hPa 0,0 l/m 0 min 0 min 47 W/m 18,8 km/h (3 Bft)
02.12.2014 15:02 1,9 C 1,1 C 86 % 1013,8 hPa 0,0 l/m 0 min 0 min 50 W/m 20,9 km/h (4 Bft)
02.12.2014 15:04 1,9 C 1,1 C 86 % 1013,8 hPa 0,0 l/m 0 min 0 min 53 W/m 20,9 km/h (4 Bft)
02.12.2014 15:06 1,9 C 1,1 C 86 % 1013,8 hPa 0,0 l/m 0 min 0 min 48 W/m 20,9 km/h (4 Bft)
02.12.2014 15:08 1,9 C 1,1 C 86 % 1013,7 hPa 0,0 l/m 0 min 0 min 48 W/m 16,7 km/h (3 Bft)
02.12.2014 15:10 1,9 C 1,1 C 86 % 1013,7 hPa 0,0 l/m 0 min 0 min 48 W/m 18,8 km/h (3 Bft)
02.12.2014 15:12 1,9 C 1,1 C 86 % 1013,7 hPa 0,0 l/m 0 min 0 min 51 W/m 25,1 km/h (4 Bft)
02.12.2014 15:14 1,9 C 1,1 C 86 % 1013,7 hPa 0,0 l/m 0 min 0 min 48 W/m 27,2 km/h (4 Bft)
02.12.2014 15:16 1,9 C 1,1 C 86 % 1013,7 hPa 0,0 l/m 0 min 0 min 37 W/m 25,1 km/h (4 Bft)
02.12.2014 15:18 1,9 C 1,1 C 86 % 1013,8 hPa 0,0 l/m 0 min 0 min 27 W/m 16,7 km/h (3 Bft)
02.12.2014 15:20 1,9 C 1,1 C 86 % 1013,9 hPa 0,0 l/m 0 min 0 min 24 W/m 20,9 km/h (4 Bft)
02.12.2014 15:22 1,9 C 1,1 C 86 % 1013,8 hPa 0,0 l/m 0 min 0 min 25 W/m 18,8 km/h (3 Bft)
02.12.2014 15:24 1,9 C 1,1 C 86 % 1013,9 hPa 0,0 l/m 0 min 0 min 25 W/m 25,1 km/h (4 Bft)
02.12.2014 15:26 1,9 C 1,1 C 86 % 1013,9 hPa 0,0 l/m 0 min 0 min 25 W/m 23,0 km/h (4 Bft)
02.12.2014 15:28 1,9 C 1,1 C 86 % 1013,9 hPa 0,0 l/m 0 min 0 min 25 W/m 23,0 km/h (4 Bft)
02.12.2014 15:30 1,9 C 1,1 C 86 % 1013,9 hPa 0,0 l/m 0 min 0 min 25 W/m 18,8 km/h (3 Bft)
02.12.2014 15:32 1,9 C 1,1 C 86 % 1013,9 hPa 0,0 l/m 0 min 0 min 25 W/m 18,8 km/h (3 Bft)
02.12.2014 15:34 1,9 C 1,1 C 86 % 1013,9 hPa 0,0 l/m 0 min 0 min 26 W/m 14,6 km/h (3 Bft)
02.12.2014 15:36 1,9 C 1,1 C 86 % 1014,0 hPa 0,0 l/m 0 min 0 min 24 W/m 14,6 km/h (3 Bft)
02.12.2014 15:38 1,9 C 1,1 C 86 % 1014,0 hPa 0,0 l/m 0 min 0 min 21 W/m 18,8 km/h (3 Bft)
02.12.2014 15:40 1,9 C 1,1 C 86 % 1014,0 hPa 0,0 l/m 0 min 0 min 17 W/m 18,8 km/h (3 Bft)
02.12.2014 15:42 1,9 C 1,1 C 86 % 1014,0 hPa 0,0 l/m 0 min 0 min 16 W/m 18,8 km/h (3 Bft)
02.12.2014 15:44 1,9 C 1,1 C 86 % 1014,0 hPa 0,0 l/m 0 min 0 min 18 W/m 16,7 km/h (3 Bft)
02.12.2014 15:46 1,9 C 1,1 C 86 % 1014,0 hPa 0,0 l/m 0 min 0 min 19 W/m 20,9 km/h (4 Bft)
02.12.2014 15:48 1,9 C 1,1 C 86 % 1014,1 hPa 0,0 l/m 0 min 0 min 18 W/m 20,9 km/h (4 Bft)
02.12.2014 15:50 1,9 C 1,1 C 86 % 1014,0 hPa 0,0 l/m 0 min 0 min 17 W/m 16,7 km/h (3 Bft)
02.12.2014 15:52 1,9 C 1,1 C 86 % 1014,1 hPa 0,0 l/m 0 min 0 min 16 W/m 18,8 km/h (3 Bft)
02.12.2014 15:54 1,9 C 1,1 C 86 % 1014,0 hPa 0,0 l/m 0 min 0 min 16 W/m 20,9 km/h (4 Bft)
02.12.2014 15:56 1,9 C 1,1 C 86 % 1014,1 hPa 0,0 l/m 0 min 0 min 15 W/m 23,0 km/h (4 Bft)
02.12.2014 15:58 1,9 C 1,1 C 86 % 1014,2 hPa 0,0 l/m 0 min 0 min 14 W/m 23,0 km/h (4 Bft)
02.12.2014 16:00 1,9 C 1,1 C 86 % 1014,2 hPa 0,0 l/m 0 min 0 min 13 W/m 14,6 km/h (3 Bft)
02.12.2014 16:02 1,9 C 1,1 C 86 % 1014,2 hPa 0,0 l/m 0 min 0 min 12 W/m 16,7 km/h (3 Bft)
02.12.2014 16:04 1,9 C 1,1 C 86 % 1014,3 hPa 0,0 l/m 0 min 0 min 11 W/m 20,9 km/h (4 Bft)
02.12.2014 16:06 1,9 C 1,1 C 86 % 1014,3 hPa 0,0 l/m 0 min 0 min 10 W/m 16,7 km/h (3 Bft)
02.12.2014 16:08 1,9 C 1,1 C 86 % 1014,3 hPa 0,0 l/m 0 min 0 min 8 W/m 10,5 km/h (2 Bft)
02.12.2014 16:10 1,9 C 1,1 C 86 % 1014,3 hPa 0,0 l/m 0 min 0 min 7 W/m 18,8 km/h (3 Bft)
02.12.2014 16:12 1,9 C 1,1 C 86 % 1014,4 hPa 0,0 l/m 0 min 0 min 6 W/m 20,9 km/h (4 Bft)
02.12.2014 16:14 1,9 C 1,1 C 86 % 1014,3 hPa 0,0 l/m 0 min 0 min 5 W/m 18,8 km/h (3 Bft)
02.12.2014 16:16 1,9 C 1,1 C 86 % 1014,4 hPa 0,0 l/m 0 min 0 min 5 W/m 23,0 km/h (4 Bft)
02.12.2014 16:18 1,9 C 1,1 C 86 % 1014,3 hPa 0,0 l/m 0 min 0 min 5 W/m 18,8 km/h (3 Bft)
02.12.2014 16:20 1,9 C 1,1 C 86 % 1014,3 hPa 0,0 l/m 0 min 0 min 3 W/m 20,9 km/h (4 Bft)
02.12.2014 16:22 1,9 C 1,1 C 86 % 1014,4 hPa 0,0 l/m 0 min 0 min 0 W/m 16,7 km/h (3 Bft)
02.12.2014 16:24 1,9 C 1,1 C 86 % 1014,4 hPa 0,0 l/m 0 min 0 min 0 W/m 16,7 km/h (3 Bft)
02.12.2014 16:26 1,8 C 1,1 C 86 % 1014,5 hPa 0,0 l/m 0 min 0 min 0 W/m 20,9 km/h (4 Bft)
02.12.2014 16:28 1,8 C 1,1 C 86 % 1014,5 hPa 0,0 l/m 0 min 0 min 0 W/m 14,6 km/h (3 Bft)
02.12.2014 16:30 1,8 C 1,1 C 86 % 1014,5 hPa 0,0 l/m 0 min 0 min 0 W/m 16,7 km/h (3 Bft)
02.12.2014 16:32 1,8 C 1,1 C 86 % 1014,5 hPa 0,0 l/m 0 min 0 min 0 W/m 14,6 km/h (3 Bft)
02.12.2014 16:34 1,8 C 1,1 C 86 % 1014,5 hPa 0,0 l/m 0 min 0 min 0 W/m 20,9 km/h (4 Bft)
02.12.2014 16:36 1,8 C 1,1 C 86 % 1014,5 hPa 0,0 l/m 0 min 0 min 0 W/m 18,8 km/h (3 Bft)
02.12.2014 16:38 1,8 C 1,1 C 86 % 1014,5 hPa 0,0 l/m 0 min 0 min 0 W/m 18,8 km/h (3 Bft)
02.12.2014 16:40 1,7 C 1,1 C 86 % 1014,5 hPa 0,0 l/m 0 min 0 min 0 W/m 20,9 km/h (4 Bft)
02.12.2014 16:42 1,7 C 1,1 C 86 % 1014,6 hPa 0,0 l/m 0 min 0 min 0 W/m 14,6 km/h (3 Bft)
02.12.2014 16:44 1,7 C 1,1 C 87 % 1014,6 hPa 0,0 l/m 0 min 0 min 0 W/m 16,7 km/h (3 Bft)
02.12.2014 16:46 1,7 C 1,1 C 87 % 1014,7 hPa 0,0 l/m 0 min 0 min 0 W/m 16,7 km/h (3 Bft)
02.12.2014 16:48 1,7 C 1,1 C 87 % 1014,7 hPa 0,0 l/m 0 min 0 min 0 W/m 18,8 km/h (3 Bft)
02.12.2014 16:50 1,7 C 1,1 C 87 % 1014,7 hPa 0,0 l/m 0 min 0 min 0 W/m 18,8 km/h (3 Bft)
02.12.2014 16:52 1,7 C 1,1 C 87 % 1014,7 hPa 0,0 l/m 0 min 0 min 0 W/m 18,8 km/h (3 Bft)
02.12.2014 16:54 1,7 C 1,1 C 87 % 1014,7 hPa 0,0 l/m 0 min 0 min 0 W/m 20,9 km/h (4 Bft)
02.12.2014 16:56 1,7 C 0,6 C 87 % 1014,7 hPa 0,0 l/m 0 min 0 min 0 W/m 20,9 km/h (4 Bft)
02.12.2014 16:58 1,7 C 0,6 C 87 % 1014,7 hPa 0,0 l/m 0 min 0 min 0 W/m 18,8 km/h (3 Bft)
02.12.2014 17:00 1,7 C 0,6 C 87 % 1014,7 hPa 0,0 l/m 0 min 0 min 0 W/m 16,7 km/h (3 Bft)
02.12.2014 17:02 1,7 C 1,1 C 87 % 1014,7 hPa 0,0 l/m 0 min 0 min 0 W/m 20,9 km/h (4 Bft)
02.12.2014 17:04 1,7 C 1,1 C 87 % 1014,7 hPa 0,0 l/m 0 min 0 min 0 W/m 14,6 km/h (3 Bft)
02.12.2014 17:06 1,7 C 1,1 C 87 % 1014,7 hPa 0,0 l/m 0 min 0 min 0 W/m 20,9 km/h (4 Bft)
02.12.2014 17:08 1,7 C 0,6 C 87 % 1014,7 hPa 0,0 l/m 0 min 0 min 0 W/m 23,0 km/h (4 Bft)
02.12.2014 17:10 1,6 C 0,6 C 87 % 1014,7 hPa 0,0 l/m 0 min 0 min 0 W/m 16,7 km/h (3 Bft)
02.12.2014 17:12 1,7 C 1,1 C 87 % 1014,7 hPa 0,0 l/m 0 min 0 min 0 W/m 23,0 km/h (4 Bft)
02.12.2014 17:14 1,6 C 0,6 C 87 % 1014,8 hPa 0,0 l/m 0 min 0 min 0 W/m 23,0 km/h (4 Bft)
02.12.2014 17:16 1,6 C 1,1 C 87 % 1014,8 hPa 0,0 l/m 0 min 0 min 0 W/m 20,9 km/h (4 Bft)
02.12.2014 17:18 1,6 C 0,6 C 87 % 1014,8 hPa 0,0 l/m 0 min 0 min 0 W/m 23,0 km/h (4 Bft)
02.12.2014 17:20 1,6 C 0,6 C 87 % 1014,8 hPa 0,0 l/m 0 min 0 min 0 W/m 18,8 km/h (3 Bft)
02.12.2014 17:22 1,6 C 0,6 C 87 % 1014,9 hPa 0,0 l/m 0 min 0 min 0 W/m 18,8 km/h (3 Bft)
02.12.2014 17:24 1,6 C 0,6 C 87 % 1014,9 hPa 0,0 l/m 0 min 0 min 0 W/m 16,7 km/h (3 Bft)
02.12.2014 17:26 1,6 C 0,6 C 87 % 1014,9 hPa 0,0 l/m 0 min 0 min 0 W/m 16,7 km/h (3 Bft)
02.12.2014 17:28 1,6 C 0,6 C 87 % 1014,9 hPa 0,0 l/m 0 min 0 min 0 W/m 12,6 km/h (3 Bft)
02.12.2014 17:30 1,6 C 0,6 C 87 % 1014,9 hPa 0,0 l/m 0 min 0 min 0 W/m 14,6 km/h (3 Bft)
02.12.2014 17:32 1,6 C 0,6 C 87 % 1015,0 hPa 0,0 l/m 0 min 0 min 0 W/m 14,6 km/h (3 Bft)
02.12.2014 17:34 1,6 C 0,6 C 87 % 1015,0 hPa 0,0 l/m 0 min 0 min 0 W/m 14,6 km/h (3 Bft)
02.12.2014 17:36 1,6 C 0,6 C 87 % 1015,0 hPa 0,0 l/m 0 min 0 min 0 W/m 16,7 km/h (3 Bft)
02.12.2014 17:38 1,6 C 0,6 C 87 % 1015,0 hPa 0,0 l/m 0 min 0 min 0 W/m 20,9 km/h (4 Bft)
02.12.2014 17:40 1,6 C 0,6 C 87 % 1015,0 hPa 0,0 l/m 0 min 0 min 0 W/m 14,6 km/h (3 Bft)
02.12.2014 17:42 1,6 C 0,6 C 87 % 1015,1 hPa 0,0 l/m 0 min 0 min 0 W/m 18,8 km/h (3 Bft)
02.12.2014 17:44 1,6 C 0,6 C 87 % 1015,1 hPa 0,0 l/m 0 min 0 min 0 W/m 16,7 km/h (3 Bft)
02.12.2014 17:46 1,6 C 0,6 C 87 % 1015,2 hPa 0,0 l/m 0 min 0 min 0 W/m 14,6 km/h (3 Bft)
02.12.2014 17:48 1,6 C 0,6 C 87 % 1015,3 hPa 0,0 l/m 0 min 0 min 0 W/m 16,7 km/h (3 Bft)
02.12.2014 17:50 1,6 C 0,6 C 87 % 1015,2 hPa 0,0 l/m 0 min 0 min 0 W/m 14,6 km/h (3 Bft)
02.12.2014 17:52 1,6 C 0,6 C 87 % 1015,2 hPa 0,0 l/m 0 min 0 min 0 W/m 14,6 km/h (3 Bft)
02.12.2014 17:54 1,6 C 0,6 C 87 % 1015,3 hPa 0,0 l/m 0 min 0 min 0 W/m 10,5 km/h (2 Bft)
02.12.2014 17:56 1,6 C 0,6 C 88 % 1015,3 hPa 0,0 l/m 0 min 0 min 0 W/m 16,7 km/h (3 Bft)
02.12.2014 17:58 1,6 C 0,6 C 88 % 1015,2 hPa 0,0 l/m 0 min 0 min 0 W/m 16,7 km/h (3 Bft)
02.12.2014 18:00 1,6 C 0,6 C 88 % 1015,3 hPa 0,0 l/m 0 min 0 min 0 W/m 10,5 km/h (2 Bft)
02.12.2014 18:02 1,6 C 0,6 C 88 % 1015,2 hPa 0,0 l/m 0 min 0 min 0 W/m 16,7 km/h (3 Bft)
02.12.2014 18:05 1,6 C 0,6 C 88 % 1015,3 hPa 0,0 l/m 0 min 0 min 0 W/m 16,7 km/h (3 Bft)
02.12.2014 18:06 1,6 C 0,6 C 88 % 1015,3 hPa 0,0 l/m 0 min 0 min 0 W/m 16,7 km/h (3 Bft)
02.12.2014 18:08 1,6 C 0,6 C 88 % 1015,4 hPa 0,0 l/m 0 min 0 min 0 W/m 14,6 km/h (3 Bft)
02.12.2014 18:10 1,6 C 0,6 C 88 % 1015,4 hPa 0,0 l/m 0 min 0 min 0 W/m 18,8 km/h (3 Bft)
02.12.2014 18:12 1,6 C 0,6 C 88 % 1015,4 hPa 0,0 l/m 0 min 0 min 0 W/m 18,8 km/h (3 Bft)
02.12.2014 18:14 1,6 C 0,6 C 88 % 1015,4 hPa 0,0 l/m 0 min 0 min 0 W/m 18,8 km/h (3 Bft)
02.12.2014 18:16 1,5 C 0,6 C 88 % 1015,4 hPa 0,0 l/m 0 min 0 min 0 W/m 16,7 km/h (3 Bft)
02.12.2014 18:18 1,5 C 0,6 C 88 % 1015,4 hPa 0,0 l/m 0 min 0 min 0 W/m 18,8 km/h (3 Bft)
02.12.2014 18:20 1,5 C 0,6 C 88 % 1015,5 hPa 0,0 l/m 0 min 0 min 0 W/m 16,7 km/h (3 Bft)
02.12.2014 18:22 1,5 C 0,6 C 88 % 1015,5 hPa 0,0 l/m 0 min 0 min 0 W/m 16,7 km/h (3 Bft)
02.12.2014 18:24 1,5 C 0,6 C 88 % 1015,4 hPa 0,0 l/m 0 min 0 min 0 W/m 18,8 km/h (3 Bft)
02.12.2014 18:26 1,5 C 0,6 C 88 % 1015,5 hPa 0,0 l/m 0 min 0 min 0 W/m 18,8 km/h (3 Bft)
02.12.2014 18:28 1,5 C 0,6 C 88 % 1015,5 hPa 0,0 l/m 0 min 0 min 0 W/m 20,9 km/h (4 Bft)
02.12.2014 18:30 1,5 C 0,6 C 88 % 1015,5 hPa 0,0 l/m 0 min 0 min 0 W/m 18,8 km/h (3 Bft)
02.12.2014 18:32 1,5 C 0,6 C 88 % 1015,5 hPa 0,0 l/m 0 min 0 min 0 W/m 20,9 km/h (4 Bft)
02.12.2014 18:34 1,5 C 0,6 C 88 % 1015,5 hPa 0,0 l/m 0 min 0 min 0 W/m 18,8 km/h (3 Bft)
02.12.2014 18:36 1,6 C 0,6 C 88 % 1015,5 hPa 0,0 l/m 0 min 0 min 0 W/m 12,6 km/h (3 Bft)
02.12.2014 18:38 1,6 C 0,6 C 88 % 1015,5 hPa 0,0 l/m 0 min 0 min 0 W/m 16,7 km/h (3 Bft)
02.12.2014 18:40 1,6 C 0,6 C 88 % 1015,5 hPa 0,0 l/m 0 min 0 min 0 W/m 14,6 km/h (3 Bft)
02.12.2014 18:42 1,6 C 0,6 C 88 % 1015,5 hPa 0,0 l/m 0 min 0 min 0 W/m 16,7 km/h (3 Bft)
02.12.2014 18:44 1,6 C 1,1 C 88 % 1015,5 hPa 0,0 l/m 0 min 0 min 0 W/m 18,8 km/h (3 Bft)
02.12.2014 18:46 1,6 C 1,1 C 88 % 1015,6 hPa 0,0 l/m 0 min 0 min 0 W/m 10,5 km/h (2 Bft)
02.12.2014 18:48 1,6 C 1,1 C 88 % 1015,6 hPa 0,0 l/m 0 min 0 min 0 W/m 14,6 km/h (3 Bft)
02.12.2014 18:50 1,6 C 1,1 C 88 % 1015,6 hPa 0,0 l/m 0 min 0 min 0 W/m 16,7 km/h (3 Bft)
02.12.2014 18:52 1,6 C 1,1 C 88 % 1015,6 hPa 0,0 l/m 0 min 0 min 0 W/m 14,6 km/h (3 Bft)
02.12.2014 18:54 1,6 C 1,1 C 88 % 1015,6 hPa 0,0 l/m 0 min 0 min 0 W/m 16,7 km/h (3 Bft)
02.12.2014 18:56 1,6 C 1,1 C 88 % 1015,7 hPa 0,0 l/m 0 min 0 min 0 W/m 18,8 km/h (3 Bft)
02.12.2014 18:58 1,6 C 1,1 C 88 % 1015,7 hPa 0,0 l/m 0 min 0 min 0 W/m 14,6 km/h (3 Bft)
02.12.2014 19:00 1,6 C 1,1 C 88 % 1015,6 hPa 0,0 l/m 0 min 0 min 0 W/m 14,6 km/h (3 Bft)
02.12.2014 19:02 1,6 C 1,1 C 88 % 1015,6 hPa 0,0 l/m 0 min 0 min 0 W/m 10,5 km/h (2 Bft)
02.12.2014 19:04 1,6 C 1,1 C 88 % 1015,6 hPa 0,0 l/m 0 min 0 min 0 W/m 14,6 km/h (3 Bft)
02.12.2014 19:06 1,6 C 1,1 C 88 % 1015,7 hPa 0,0 l/m 0 min 0 min 0 W/m 18,8 km/h (3 Bft)
02.12.2014 19:08 1,6 C 1,1 C 88 % 1015,7 hPa 0,0 l/m 0 min 0 min 0 W/m 20,9 km/h (4 Bft)
02.12.2014 19:10 1,6 C 1,1 C 88 % 1015,8 hPa 0,0 l/m 0 min 0 min 0 W/m 14,6 km/h (3 Bft)
02.12.2014 19:12 1,6 C 1,1 C 88 % 1015,7 hPa 0,0 l/m 0 min 0 min 0 W/m 16,7 km/h (3 Bft)
02.12.2014 19:14 1,6 C 1,1 C 88 % 1015,8 hPa 0,0 l/m 0 min 0 min 0 W/m 12,6 km/h (3 Bft)
02.12.2014 19:16 1,6 C 1,1 C 88 % 1015,7 hPa 0,0 l/m 0 min 0 min 0 W/m 16,7 km/h (3 Bft)
02.12.2014 19:18 1,6 C 1,1 C 88 % 1015,7 hPa 0,0 l/m 0 min 0 min 0 W/m 20,9 km/h (4 Bft)
02.12.2014 19:20 1,7 C 1,1 C 88 % 1015,8 hPa 0,0 l/m 0 min 0 min 0 W/m 18,8 km/h (3 Bft)
02.12.2014 19:22 1,7 C 1,1 C 88 % 1015,8 hPa 0,0 l/m 0 min 0 min 0 W/m 18,8 km/h (3 Bft)
02.12.2014 19:24 1,7 C 1,1 C 88 % 1015,8 hPa 0,0 l/m 0 min 0 min 0 W/m 16,7 km/h (3 Bft)
02.12.2014 19:26 1,7 C 1,1 C 88 % 1015,8 hPa 0,0 l/m 0 min 0 min 0 W/m 12,6 km/h (3 Bft)
02.12.2014 19:28 1,7 C 1,1 C 87 % 1015,8 hPa 0,0 l/m 0 min 0 min 0 W/m 14,6 km/h (3 Bft)
02.12.2014 19:30 1,6 C 1,1 C 87 % 1015,7 hPa 0,0 l/m 0 min 0 min 0 W/m 18,8 km/h (3 Bft)
02.12.2014 19:32 1,7 C 1,1 C 87 % 1015,7 hPa 0,0 l/m 0 min 0 min 0 W/m 18,8 km/h (3 Bft)
02.12.2014 19:34 1,6 C 1,1 C 87 % 1015,8 hPa 0,0 l/m 0 min 0 min 0 W/m 25,1 km/h (4 Bft)
02.12.2014 19:36 1,6 C 1,1 C 87 % 1015,8 hPa 0,0 l/m 0 min 0 min 0 W/m 20,9 km/h (4 Bft)
02.12.2014 19:38 1,6 C 1,1 C 87 % 1015,8 hPa 0,0 l/m 0 min 0 min 0 W/m 18,8 km/h (3 Bft)
02.12.2014 19:40 1,6 C 1,1 C 87 % 1015,9 hPa 0,0 l/m 0 min 0 min 0 W/m 20,9 km/h (4 Bft)
02.12.2014 19:42 1,6 C 1,1 C 87 % 1015,9 hPa 0,0 l/m 0 min 0 min 0 W/m 18,8 km/h (3 Bft)
02.12.2014 19:44 1,6 C 1,1 C 87 % 1015,9 hPa 0,0 l/m 0 min 0 min 0 W/m 18,8 km/h (3 Bft)
02.12.2014 19:46 1,6 C 1,1 C 87 % 1015,9 hPa 0,0 l/m 0 min 0 min 0 W/m 14,6 km/h (3 Bft)
02.12.2014 19:48 1,6 C 1,1 C 87 % 1015,9 hPa 0,0 l/m 0 min 0 min 0 W/m 18,8 km/h (3 Bft)
02.12.2014 19:50 1,6 C 1,1 C 87 % 1015,9 hPa 0,0 l/m 0 min 0 min 0 W/m 16,7 km/h (3 Bft)
02.12.2014 19:52 1,6 C 1,1 C 87 % 1015,9 hPa 0,0 l/m 0 min 0 min 0 W/m 18,8 km/h (3 Bft)
02.12.2014 19:54 1,6 C 1,1 C 87 % 1016,0 hPa 0,0 l/m 0 min 0 min 0 W/m 18,8 km/h (3 Bft)
02.12.2014 19:56 1,6 C 1,1 C 87 % 1016,1 hPa 0,0 l/m 0 min 0 min 0 W/m 18,8 km/h (3 Bft)
02.12.2014 19:58 1,6 C 1,1 C 87 % 1016,1 hPa 0,0 l/m 0 min 0 min 0 W/m 16,7 km/h (3 Bft)
02.12.2014 20:00 1,6 C 1,1 C 87 % 1016,1 hPa 0,0 l/m 0 min 0 min 0 W/m 14,6 km/h (3 Bft)
02.12.2014 20:02 1,6 C 1,1 C 87 % 1016,2 hPa 0,0 l/m 0 min 0 min 0 W/m 14,6 km/h (3 Bft)
02.12.2014 20:04 1,6 C 0,6 C 87 % 1016,2 hPa 0,0 l/m 0 min 0 min 0 W/m 12,6 km/h (3 Bft)
02.12.2014 20:06 1,6 C 0,6 C 87 % 1016,2 hPa 0,0 l/m 0 min 0 min 0 W/m 14,6 km/h (3 Bft)
02.12.2014 20:08 1,6 C 0,6 C 87 % 1016,3 hPa 0,0 l/m 0 min 0 min 0 W/m 16,7 km/h (3 Bft)
02.12.2014 20:10 1,6 C 0,6 C 87 % 1016,4 hPa 0,0 l/m 0 min 0 min 0 W/m 16,7 km/h (3 Bft)
02.12.2014 20:12 1,6 C 0,6 C 87 % 1016,3 hPa 0,0 l/m 0 min 0 min 0 W/m 18,8 km/h (3 Bft)
02.12.2014 20:14 1,6 C 0,6 C 87 % 1016,4 hPa 0,0 l/m 0 min 0 min 0 W/m 20,9 km/h (4 Bft)
02.12.2014 20:16 1,6 C 0,6 C 87 % 1016,4 hPa 0,0 l/m 0 min 0 min 0 W/m 16,7 km/h (3 Bft)
02.12.2014 20:18 1,6 C 0,6 C 87 % 1016,5 hPa 0,0 l/m 0 min 0 min 0 W/m 14,6 km/h (3 Bft)
02.12.2014 20:20 1,6 C 0,6 C 87 % 1016,4 hPa 0,0 l/m 0 min 0 min 0 W/m 12,6 km/h (3 Bft)
02.12.2014 20:22 1,6 C 0,6 C 87 % 1016,4 hPa 0,0 l/m 0 min 0 min 0 W/m 16,7 km/h (3 Bft)
02.12.2014 20:24 1,6 C 0,6 C 87 % 1016,4 hPa 0,0 l/m 0 min 0 min 0 W/m 20,9 km/h (4 Bft)
02.12.2014 20:26 1,6 C 0,6 C 87 % 1016,4 hPa 0,0 l/m 0 min 0 min 0 W/m 18,8 km/h (3 Bft)
02.12.2014 20:28 1,6 C 0,6 C 87 % 1016,4 hPa 0,0 l/m 0 min 0 min 0 W/m 16,7 km/h (3 Bft)
02.12.2014 20:30 1,6 C 0,6 C 87 % 1016,5 hPa 0,0 l/m 0 min 0 min 0 W/m 18,8 km/h (3 Bft)
02.12.2014 20:32 1,6 C 0,6 C 87 % 1016,4 hPa 0,0 l/m 0 min 0 min 0 W/m 14,6 km/h (3 Bft)
02.12.2014 20:34 1,6 C 0,6 C 87 % 1016,5 hPa 0,0 l/m 0 min 0 min 0 W/m 20,9 km/h (4 Bft)
02.12.2014 20:36 1,6 C 0,6 C 87 % 1016,5 hPa 0,0 l/m 0 min 0 min 0 W/m 20,9 km/h (4 Bft)
02.12.2014 20:38 1,5 C 0,6 C 87 % 1016,5 hPa 0,0 l/m 0 min 0 min 0 W/m 18,8 km/h (3 Bft)
02.12.2014 20:40 1,5 C 0,6 C 87 % 1016,6 hPa 0,0 l/m 0 min 0 min 0 W/m 18,8 km/h (3 Bft)
02.12.2014 20:42 1,5 C 0,6 C 87 % 1016,6 hPa 0,0 l/m 0 min 0 min 0 W/m 16,7 km/h (3 Bft)
02.12.2014 20:44 1,5 C 0,6 C 87 % 1016,5 hPa 0,0 l/m 0 min 0 min 0 W/m 14,6 km/h (3 Bft)
02.12.2014 20:46 1,5 C 0,6 C 87 % 1016,6 hPa 0,0 l/m 0 min 0 min 0 W/m 16,7 km/h (3 Bft)
02.12.2014 20:48 1,5 C 0,6 C 87 % 1016,6 hPa 0,0 l/m 0 min 0 min 0 W/m 23,0 km/h (4 Bft)
02.12.2014 20:50 1,5 C 0,6 C 87 % 1016,5 hPa 0,0 l/m 0 min 0 min 0 W/m 23,0 km/h (4 Bft)
02.12.2014 20:52 1,5 C 0,6 C 87 % 1016,5 hPa 0,0 l/m 0 min 0 min 0 W/m 18,8 km/h (3 Bft)
02.12.2014 20:54 1,5 C 0,6 C 87 % 1016,5 hPa 0,0 l/m 0 min 0 min 0 W/m 18,8 km/h (3 Bft)
02.12.2014 20:56 1,5 C 0,6 C 87 % 1016,5 hPa 0,0 l/m 0 min 0 min 0 W/m 16,7 km/h (3 Bft)
02.12.2014 20:58 1,5 C 0,6 C 87 % 1016,5 hPa 0,0 l/m 0 min 0 min 0 W/m 18,8 km/h (3 Bft)
02.12.2014 21:00 1,5 C 0,6 C 87 % 1016,4 hPa 0,0 l/m 0 min 0 min 0 W/m 20,9 km/h (4 Bft)
02.12.2014 21:02 1,5 C 0,6 C 87 % 1016,4 hPa 0,0 l/m 0 min 0 min 0 W/m 29,3 km/h (5 Bft)
02.12.2014 21:04 1,5 C 0,6 C 87 % 1016,5 hPa 0,0 l/m 0 min 0 min 0 W/m 25,1 km/h (4 Bft)
02.12.2014 21:06 1,5 C 0,6 C 87 % 1016,5 hPa 0,0 l/m 0 min 0 min 0 W/m 18,8 km/h (3 Bft)
02.12.2014 21:08 1,4 C 0,6 C 87 % 1016,5 hPa 0,0 l/m 0 min 0 min 0 W/m 20,9 km/h (4 Bft)
02.12.2014 21:10 1,5 C 0,6 C 87 % 1016,6 hPa 0,0 l/m 0 min 0 min 0 W/m 23,0 km/h (4 Bft)
02.12.2014 21:12 1,5 C 0,6 C 87 % 1016,6 hPa 0,0 l/m 0 min 0 min 0 W/m 25,1 km/h (4 Bft)
02.12.2014 21:14 1,5 C 0,6 C 87 % 1016,7 hPa 0,0 l/m 0 min 0 min 0 W/m 16,7 km/h (3 Bft)
02.12.2014 21:16 1,4 C 0,6 C 87 % 1016,7 hPa 0,0 l/m 0 min 0 min 0 W/m 23,0 km/h (4 Bft)
02.12.2014 21:18 1,4 C 0,6 C 87 % 1016,7 hPa 0,0 l/m 0 min 0 min 0 W/m 18,8 km/h (3 Bft)
02.12.2014 21:20 1,4 C 0,6 C 87 % 1016,7 hPa 0,0 l/m 0 min 0 min 0 W/m 23,0 km/h (4 Bft)
02.12.2014 21:22 1,4 C 0,6 C 87 % 1016,8 hPa 0,0 l/m 0 min 0 min 0 W/m 20,9 km/h (4 Bft)
02.12.2014 21:24 1,4 C 0,6 C 87 % 1016,8 hPa 0,0 l/m 0 min 0 min 0 W/m 20,9 km/h (4 Bft)
02.12.2014 21:26 1,4 C 0,6 C 87 % 1016,9 hPa 0,0 l/m 0 min 0 min 0 W/m 23,0 km/h (4 Bft)
02.12.2014 21:28 1,4 C 0,6 C 87 % 1016,9 hPa 0,0 l/m 0 min 0 min 0 W/m 16,7 km/h (3 Bft)
02.12.2014 21:30 1,4 C 0,6 C 87 % 1016,8 hPa 0,0 l/m 0 min 0 min 0 W/m 27,2 km/h (4 Bft)
02.12.2014 21:32 1,4 C 0,6 C 87 % 1016,8 hPa 0,0 l/m 0 min 0 min 0 W/m 20,9 km/h (4 Bft)
02.12.2014 21:34 1,4 C 0,6 C 87 % 1016,9 hPa 0,0 l/m 0 min 0 min 0 W/m 18,8 km/h (3 Bft)
02.12.2014 21:36 1,4 C 0,6 C 87 % 1016,9 hPa 0,0 l/m 0 min 0 min 0 W/m 16,7 km/h (3 Bft)
02.12.2014 21:38 1,4 C 0,6 C 87 % 1016,9 hPa 0,0 l/m 0 min 0 min 0 W/m 12,6 km/h (3 Bft)
02.12.2014 21:40 1,4 C 0,6 C 87 % 1016,9 hPa 0,0 l/m 0 min 0 min 0 W/m 14,6 km/h (3 Bft)
02.12.2014 21:42 1,4 C 0,6 C 87 % 1016,9 hPa 0,0 l/m 0 min 0 min 0 W/m 18,8 km/h (3 Bft)
02.12.2014 21:44 1,4 C 0,6 C 87 % 1016,9 hPa 0,0 l/m 0 min 0 min 0 W/m 16,7 km/h (3 Bft)
02.12.2014 21:46 1,4 C 0,6 C 87 % 1016,9 hPa 0,0 l/m 0 min 0 min 0 W/m 16,7 km/h (3 Bft)
02.12.2014 21:48 1,4 C 0,6 C 87 % 1016,8 hPa 0,0 l/m 0 min 0 min 0 W/m 14,6 km/h (3 Bft)
02.12.2014 21:50 1,4 C 0,6 C 87 % 1016,9 hPa 0,0 l/m 0 min 0 min 0 W/m 20,9 km/h (4 Bft)
02.12.2014 21:52 1,4 C 0,6 C 87 % 1016,9 hPa 0,0 l/m 0 min 0 min 0 W/m 18,8 km/h (3 Bft)
02.12.2014 21:54 1,4 C 0,6 C 87 % 1016,9 hPa 0,0 l/m 0 min 0 min 0 W/m 14,6 km/h (3 Bft)
02.12.2014 21:56 1,3 C 0,6 C 87 % 1017,0 hPa 0,0 l/m 0 min 0 min 0 W/m 12,6 km/h (3 Bft)
02.12.2014 21:58 1,3 C 0,6 C 87 % 1016,9 hPa 0,0 l/m 0 min 0 min 0 W/m 14,6 km/h (3 Bft)
02.12.2014 22:00 1,3 C 0,6 C 87 % 1017,1 hPa 0,0 l/m 0 min 0 min 0 W/m 14,6 km/h (3 Bft)
02.12.2014 22:02 1,3 C 0,6 C 87 % 1017,0 hPa 0,0 l/m 0 min 0 min 0 W/m 10,5 km/h (2 Bft)
02.12.2014 22:04 1,3 C 0,6 C 87 % 1017,0 hPa 0,0 l/m 0 min 0 min 0 W/m 16,7 km/h (3 Bft)
02.12.2014 22:06 1,3 C 0,6 C 87 % 1017,1 hPa 0,0 l/m 0 min 0 min 0 W/m 14,6 km/h (3 Bft)
02.12.2014 22:08 1,3 C 0,6 C 87 % 1017,2 hPa 0,0 l/m 0 min 0 min 0 W/m 18,8 km/h (3 Bft)
02.12.2014 22:10 1,3 C 0,6 C 87 % 1017,2 hPa 0,0 l/m 0 min 0 min 0 W/m 16,7 km/h (3 Bft)
02.12.2014 22:12 1,3 C 0,6 C 87 % 1017,2 hPa 0,0 l/m 0 min 0 min 0 W/m 14,6 km/h (3 Bft)
02.12.2014 22:14 1,3 C 0,6 C 87 % 1017,1 hPa 0,0 l/m 0 min 0 min 0 W/m 18,8 km/h (3 Bft)
02.12.2014 22:16 1,2 C 0,6 C 87 % 1017,2 hPa 0,0 l/m 0 min 0 min 0 W/m 18,8 km/h (3 Bft)
02.12.2014 22:18 1,2 C 0,6 C 87 % 1017,2 hPa 0,0 l/m 0 min 0 min 0 W/m 16,7 km/h (3 Bft)
02.12.2014 22:20 1,2 C 0,6 C 87 % 1017,1 hPa 0,0 l/m 0 min 0 min 0 W/m 18,8 km/h (3 Bft)
02.12.2014 22:22 1,2 C 0,6 C 87 % 1017,2 hPa 0,0 l/m 0 min 0 min 0 W/m 20,9 km/h (4 Bft)
02.12.2014 22:24 1,2 C 0,6 C 87 % 1017,2 hPa 0,0 l/m 0 min 0 min 0 W/m 18,8 km/h (3 Bft)
02.12.2014 22:26 1,2 C 0,6 C 87 % 1017,2 hPa 0,0 l/m 0 min 0 min 0 W/m 20,9 km/h (4 Bft)
02.12.2014 22:28 1,2 C 0,6 C 87 % 1017,3 hPa 0,0 l/m 0 min 0 min 0 W/m 20,9 km/h (4 Bft)
02.12.2014 22:30 1,2 C 0,6 C 87 % 1017,3 hPa 0,0 l/m 0 min 0 min 0 W/m 18,8 km/h (3 Bft)
02.12.2014 22:32 1,2 C 0,6 C 87 % 1017,3 hPa 0,0 l/m 0 min 0 min 0 W/m 20,9 km/h (4 Bft)
02.12.2014 22:34 1,2 C 0,6 C 87 % 1017,4 hPa 0,0 l/m 0 min 0 min 0 W/m 18,8 km/h (3 Bft)
02.12.2014 22:36 1,2 C 0,6 C 87 % 1017,4 hPa 0,0 l/m 0 min 0 min 0 W/m 14,6 km/h (3 Bft)
02.12.2014 22:38 1,2 C 0,6 C 87 % 1017,4 hPa 0,0 l/m 0 min 0 min 0 W/m 16,7 km/h (3 Bft)
02.12.2014 22:40 1,2 C 0,6 C 87 % 1017,3 hPa 0,0 l/m 0 min 0 min 0 W/m 12,6 km/h (3 Bft)
02.12.2014 22:42 1,2 C 0,6 C 87 % 1017,4 hPa 0,0 l/m 0 min 0 min 0 W/m 12,6 km/h (3 Bft)
02.12.2014 22:44 1,2 C 0,6 C 87 % 1017,3 hPa 0,0 l/m 0 min 0 min 0 W/m 14,6 km/h (3 Bft)
02.12.2014 22:46 1,2 C 0,6 C 87 % 1017,4 hPa 0,0 l/m 0 min 0 min 0 W/m 14,6 km/h (3 Bft)
02.12.2014 22:48 1,2 C 0,6 C 87 % 1017,4 hPa 0,0 l/m 0 min 0 min 0 W/m 12,6 km/h (3 Bft)
02.12.2014 22:50 1,2 C 0,6 C 87 % 1017,4 hPa 0,0 l/m 0 min 0 min 0 W/m 10,5 km/h (2 Bft)
02.12.2014 22:52 1,2 C 0,6 C 87 % 1017,4 hPa 0,0 l/m 0 min 0 min 0 W/m 12,6 km/h (3 Bft)
02.12.2014 22:54 1,2 C 0,6 C 87 % 1017,4 hPa 0,0 l/m 0 min 0 min 0 W/m 8,4 km/h (2 Bft)
02.12.2014 22:56 1,2 C 0,6 C 87 % 1017,4 hPa 0,0 l/m 0 min 0 min 0 W/m 8,4 km/h (2 Bft)
02.12.2014 22:58 1,2 C 0,6 C 87 % 1017,4 hPa 0,0 l/m 0 min 0 min 0 W/m 10,5 km/h (2 Bft)
02.12.2014 23:00 1,2 C 0,6 C 87 % 1017,4 hPa 0,0 l/m 0 min 0 min 0 W/m 8,4 km/h (2 Bft)
02.12.2014 23:02 1,2 C 0,6 C 87 % 1017,4 hPa 0,0 l/m 0 min 0 min 0 W/m 10,5 km/h (2 Bft)
02.12.2014 23:04 1,2 C 0,6 C 87 % 1017,3 hPa 0,0 l/m 0 min 0 min 0 W/m 8,4 km/h (2 Bft)
02.12.2014 23:06 1,2 C 0,6 C 87 % 1017,4 hPa 0,0 l/m 0 min 0 min 0 W/m 12,6 km/h (3 Bft)
02.12.2014 23:08 1,2 C 0,6 C 87 % 1017,5 hPa 0,0 l/m 0 min 0 min 0 W/m 14,6 km/h (3 Bft)
02.12.2014 23:10 1,2 C 0,6 C 87 % 1017,6 hPa 0,0 l/m 0 min 0 min 0 W/m 10,5 km/h (2 Bft)
02.12.2014 23:12 1,2 C 0,6 C 87 % 1017,6 hPa 0,0 l/m 0 min 0 min 0 W/m 12,6 km/h (3 Bft)
02.12.2014 23:14 1,2 C 0,6 C 87 % 1017,6 hPa 0,0 l/m 0 min 0 min 0 W/m 14,6 km/h (3 Bft)
02.12.2014 23:16 1,2 C 0,6 C 87 % 1017,7 hPa 0,0 l/m 0 min 0 min 0 W/m 16,7 km/h (3 Bft)
02.12.2014 23:18 1,2 C 0,6 C 87 % 1017,8 hPa 0,0 l/m 0 min 0 min 0 W/m 18,8 km/h (3 Bft)
02.12.2014 23:20 1,2 C 0,6 C 87 % 1017,8 hPa 0,0 l/m 0 min 0 min 0 W/m 20,9 km/h (4 Bft)
02.12.2014 23:22 1,2 C 0,6 C 87 % 1017,8 hPa 0,0 l/m 0 min 0 min 0 W/m 16,7 km/h (3 Bft)
02.12.2014 23:24 1,2 C 0,6 C 87 % 1017,8 hPa 0,0 l/m 0 min 0 min 0 W/m 12,6 km/h (3 Bft)
02.12.2014 23:26 1,2 C 0,6 C 87 % 1017,8 hPa 0,0 l/m 0 min 0 min 0 W/m 23,0 km/h (4 Bft)
02.12.2014 23:28 1,2 C 0,6 C 87 % 1017,9 hPa 0,0 l/m 0 min 0 min 0 W/m 16,7 km/h (3 Bft)
02.12.2014 23:30 1,1 C 0,6 C 87 % 1017,9 hPa 0,0 l/m 0 min 0 min 0 W/m 16,7 km/h (3 Bft)
02.12.2014 23:32 1,1 C 0,6 C 87 % 1017,9 hPa 0,0 l/m 0 min 0 min 0 W/m 8,4 km/h (2 Bft)
02.12.2014 23:34 1,1 C 0,6 C 87 % 1017,9 hPa 0,0 l/m 0 min 0 min 0 W/m 18,8 km/h (3 Bft)
02.12.2014 23:36 1,1 C 0,6 C 87 % 1017,9 hPa 0,0 l/m 0 min 0 min 0 W/m 14,6 km/h (3 Bft)
02.12.2014 23:38 1,1 C 0,6 C 87 % 1017,9 hPa 0,0 l/m 0 min 0 min 0 W/m 18,8 km/h (3 Bft)
02.12.2014 23:40 1,1 C 0,6 C 87 % 1017,9 hPa 0,0 l/m 0 min 0 min 0 W/m 12,6 km/h (3 Bft)
02.12.2014 23:42 1,1 C 0,6 C 87 % 1017,9 hPa 0,0 l/m 0 min 0 min 0 W/m 12,6 km/h (3 Bft)
02.12.2014 23:44 1,1 C 0,6 C 88 % 1017,9 hPa 0,0 l/m 0 min 0 min 0 W/m 10,5 km/h (2 Bft)
02.12.2014 23:46 1,1 C 0,6 C 88 % 1018,0 hPa 0,0 l/m 0 min 0 min 0 W/m 10,5 km/h (2 Bft)
02.12.2014 23:48 1,1 C 0,6 C 88 % 1018,0 hPa 0,0 l/m 0 min 0 min 0 W/m 10,5 km/h (2 Bft)
02.12.2014 23:50 1,1 C 0,6 C 88 % 1018,2 hPa 0,0 l/m 0 min 0 min 0 W/m 10,5 km/h (2 Bft)
02.12.2014 23:52 1,1 C 0,6 C 88 % 1018,2 hPa 0,0 l/m 0 min 0 min 0 W/m 14,6 km/h (3 Bft)
02.12.2014 23:54 1,1 C 0,0 C 88 % 1018,2 hPa 0,0 l/m 0 min 0 min 0 W/m 8,4 km/h (2 Bft)
02.12.2014 23:56 1,1 C 0,0 C 88 % 1018,3 hPa 0,0 l/m 0 min 0 min 0 W/m 16,7 km/h (3 Bft)
02.12.2014 23:58 1,1 C 0,0 C 88 % 1018,3 hPa 0,0 l/m 0 min 0 min 0 W/m 14,6 km/h (3 Bft)
_ Min-Zeit 23:28 23:54 13:06 01:46 - - - - 08:08
Minimum _ 1,1 C 0,0 C 85 % 1011,8 hPa - - - - 4,2 km/h (1 Bft)
_ Max-Zeit 13:44 13:30 03:16 23:56 00:00 00:00 00:00 13:54 14:36
Maximum _ 2,4 C 2,2 C 92 % 1018,3 hPa 0,0 l/m 0 min 0 min 108 W/m 29,3 km/h
N (5 Bft)
Durchschnitt _ 1,7 C 1,1 C 88 % 1013,8 hPa #0,0 l/m #0 min. #0 min. 49 W/m 15,3 km/h (3 Bft)
© 2015 W. Hausmann